Wetterdaten: Samstag, 27.08.2022
Datum Zeit Temp. Aussen Temp. o. S. Temp +5cm Feuchte Auss Luftdruck Regen Sonnenschein Regendauer Solar Windben Empfang
27.08.2022 00:00 19,7 C 18,9 C 15,6 C 82 % 1016,7 hPa 0,0 l/m 0 min 0 min 0 W/m 6,4 km/h (2 Bft) 97,83 %
27.08.2022 00:02 19,7 C 18,9 C 15,6 C 83 % 1016,6 hPa 0,0 l/m 0 min 0 min 0 W/m 9,7 km/h (2 Bft) 100,00 %
27.08.2022 00:04 19,7 C 18,9 C 15,6 C 83 % 1016,7 hPa 0,0 l/m 0 min 0 min 0 W/m 9,7 km/h (2 Bft) 97,87 %
27.08.2022 00:08 19,7 C 18,9 C 15,6 C 83 % 1016,7 hPa 0,0 l/m 0 min 0 min 0 W/m 16,1 km/h (3 Bft) 96,34 %
27.08.2022 00:10 19,7 C 18,9 C 15,6 C 83 % 1016,7 hPa 0,0 l/m 0 min 0 min 0 W/m 6,4 km/h (2 Bft) 97,87 %
27.08.2022 00:12 19,7 C 18,9 C 15,6 C 83 % 1016,7 hPa 0,0 l/m 0 min 0 min 0 W/m 6,4 km/h (2 Bft) 97,87 %
27.08.2022 00:14 19,7 C 18,9 C 15,6 C 83 % 1016,7 hPa 0,0 l/m 0 min 0 min 0 W/m 12,9 km/h (3 Bft) 97,87 %
27.08.2022 00:16 19,7 C 18,9 C 15,6 C 83 % 1016,7 hPa 0,0 l/m 0 min 0 min 0 W/m 12,9 km/h (3 Bft) 97,83 %
27.08.2022 00:18 19,6 C 18,9 C 15,6 C 83 % 1016,7 hPa 0,0 l/m 0 min 0 min 0 W/m 6,4 km/h (2 Bft) 97,87 %
27.08.2022 00:20 19,6 C 18,9 C 15,6 C 83 % 1016,7 hPa 0,0 l/m 0 min 0 min 0 W/m 6,4 km/h (2 Bft) 95,74 %
27.08.2022 00:22 19,6 C 18,9 C 15,6 C 83 % 1016,7 hPa 0,0 l/m 0 min 0 min 0 W/m 16,1 km/h (3 Bft) 97,87 %
27.08.2022 00:24 19,6 C 18,9 C 15,6 C 82 % 1016,8 hPa 0,0 l/m 0 min 0 min 0 W/m 19,3 km/h (3 Bft) 97,87 %
27.08.2022 00:26 19,6 C 18,9 C 15,6 C 82 % 1016,8 hPa 0,0 l/m 0 min 0 min 0 W/m 12,9 km/h (3 Bft) 97,87 %
27.08.2022 00:28 19,5 C 18,9 C 15,0 C 82 % 1016,8 hPa 0,0 l/m 0 min 0 min 0 W/m 16,1 km/h (3 Bft) 100,00 %
27.08.2022 00:30 19,5 C 18,9 C 15,0 C 83 % 1016,8 hPa 0,0 l/m 0 min 0 min 0 W/m 16,1 km/h (3 Bft) 95,74 %
27.08.2022 00:32 19,4 C 18,9 C 15,0 C 83 % 1016,8 hPa 0,0 l/m 0 min 0 min 0 W/m 16,1 km/h (3 Bft) 95,74 %
27.08.2022 00:34 19,4 C 18,9 C 15,0 C 83 % 1016,8 hPa 0,0 l/m 0 min 0 min 0 W/m 6,4 km/h (2 Bft) 93,62 %
27.08.2022 00:36 19,4 C 18,9 C 15,0 C 83 % 1016,8 hPa 0,0 l/m 0 min 0 min 0 W/m 16,1 km/h (3 Bft) 96,55 %
27.08.2022 00:38 19,4 C 18,9 C 15,0 C 83 % 1016,9 hPa 0,0 l/m 0 min 0 min 0 W/m 12,9 km/h (3 Bft) 97,22 %
27.08.2022 00:40 19,4 C 18,9 C 15,0 C 83 % 1016,9 hPa 0,0 l/m 0 min 0 min 0 W/m 12,9 km/h (3 Bft) 97,83 %
27.08.2022 00:42 19,4 C 18,9 C 15,0 C 83 % 1016,8 hPa 0,0 l/m 0 min 0 min 0 W/m 6,4 km/h (2 Bft) 93,62 %
27.08.2022 00:44 19,4 C 18,9 C 15,0 C 83 % 1016,8 hPa 0,0 l/m 0 min 0 min 0 W/m 12,9 km/h (3 Bft) 93,62 %
27.08.2022 00:46 19,3 C 18,3 C 15,0 C 83 % 1016,9 hPa 0,0 l/m 0 min 0 min 0 W/m 6,4 km/h (2 Bft) 95,74 %
27.08.2022 00:48 19,3 C 18,3 C 15,0 C 83 % 1016,9 hPa 0,0 l/m 0 min 0 min 0 W/m 12,9 km/h (3 Bft) 97,87 %
27.08.2022 00:50 19,3 C 18,3 C 15,0 C 83 % 1016,8 hPa 0,0 l/m 0 min 0 min 0 W/m 16,1 km/h (3 Bft) 97,87 %
27.08.2022 00:52 19,3 C 18,3 C 15,0 C 83 % 1016,8 hPa 0,0 l/m 0 min 0 min 0 W/m 16,1 km/h (3 Bft) 97,83 %
27.08.2022 00:54 19,3 C 18,3 C 15,0 C 83 % 1016,8 hPa 0,0 l/m 0 min 0 min 0 W/m 19,3 km/h (3 Bft) 97,87 %
27.08.2022 00:56 19,3 C 18,3 C 15,0 C 83 % 1016,8 hPa 0,0 l/m 0 min 0 min 0 W/m 9,7 km/h (2 Bft) 97,87 %
27.08.2022 00:58 19,2 C 18,3 C 15,0 C 84 % 1016,9 hPa 0,0 l/m 0 min 0 min 0 W/m 12,9 km/h (3 Bft) 97,87 %
27.08.2022 01:00 19,2 C 18,3 C 15,0 C 84 % 1016,8 hPa 0,0 l/m 0 min 0 min 0 W/m 9,7 km/h (2 Bft) 97,87 %
27.08.2022 01:02 19,2 C 18,3 C 15,0 C 84 % 1016,8 hPa 0,0 l/m 0 min 0 min 0 W/m 9,7 km/h (2 Bft) 100,00 %
27.08.2022 01:04 19,2 C 18,3 C 15,0 C 84 % 1016,8 hPa 0,0 l/m 0 min 0 min 0 W/m 12,9 km/h (3 Bft) 97,83 %
27.08.2022 01:06 19,2 C 18,3 C 15,0 C 84 % 1016,8 hPa 0,0 l/m 0 min 0 min 0 W/m 6,4 km/h (2 Bft) 100,00 %
27.08.2022 01:08 19,2 C 18,3 C 15,0 C 84 % 1016,8 hPa 0,0 l/m 0 min 0 min 0 W/m 9,7 km/h (2 Bft) 100,00 %
27.08.2022 01:10 19,2 C 18,3 C 15,0 C 84 % 1016,8 hPa 0,0 l/m 0 min 0 min 0 W/m 6,4 km/h (2 Bft) 100,00 %
27.08.2022 01:12 19,2 C 18,3 C 15,0 C 84 % 1016,8 hPa 0,0 l/m 0 min 0 min 0 W/m 6,4 km/h (2 Bft) 100,00 %
27.08.2022 01:14 19,1 C 18,3 C 15,0 C 84 % 1016,9 hPa 0,0 l/m 0 min 0 min 0 W/m 12,9 km/h (3 Bft) 100,00 %
27.08.2022 01:16 19,1 C 18,3 C 15,0 C 84 % 1016,9 hPa 0,0 l/m 0 min 0 min 0 W/m 9,7 km/h (2 Bft) 100,00 %
27.08.2022 01:18 19,1 C 18,3 C 15,0 C 84 % 1016,9 hPa 0,0 l/m 0 min 0 min 0 W/m 9,7 km/h (2 Bft) 95,74 %
27.08.2022 01:20 19,1 C 18,3 C 15,0 C 84 % 1016,9 hPa 0,0 l/m 0 min 0 min 0 W/m 9,7 km/h (2 Bft) 100,00 %
27.08.2022 01:22 19,1 C 18,3 C 15,0 C 84 % 1016,9 hPa 0,0 l/m 0 min 0 min 0 W/m 12,9 km/h (3 Bft) 100,00 %
27.08.2022 01:24 19,1 C 18,3 C 15,0 C 84 % 1016,9 hPa 0,0 l/m 0 min 0 min 0 W/m 16,1 km/h (3 Bft) 100,00 %
27.08.2022 01:26 19,0 C 18,3 C 15,0 C 84 % 1016,9 hPa 0,0 l/m 0 min 0 min 0 W/m 12,9 km/h (3 Bft) 100,00 %
27.08.2022 01:28 19,0 C 18,3 C 15,0 C 84 % 1017,0 hPa 0,0 l/m 0 min 0 min 0 W/m 6,4 km/h (2 Bft) 97,83 %
27.08.2022 01:30 18,9 C 18,3 C 14,4 C 84 % 1017,0 hPa 0,0 l/m 0 min 0 min 0 W/m 12,9 km/h (3 Bft) 97,87 %
27.08.2022 01:32 18,9 C 18,3 C 14,4 C 84 % 1017,0 hPa 0,0 l/m 0 min 0 min 0 W/m 12,9 km/h (3 Bft) 97,87 %
27.08.2022 01:34 18,9 C 18,3 C 14,4 C 84 % 1017,0 hPa 0,0 l/m 0 min 0 min 0 W/m 6,4 km/h (2 Bft) 97,87 %
27.08.2022 01:36 18,9 C 18,3 C 15,0 C 84 % 1016,9 hPa 0,0 l/m 0 min 0 min 0 W/m 12,9 km/h (3 Bft) 98,28 %
27.08.2022 01:38 18,8 C 18,3 C 14,4 C 84 % 1016,9 hPa 0,0 l/m 0 min 0 min 0 W/m 12,9 km/h (3 Bft) 94,44 %
27.08.2022 01:40 18,8 C 17,8 C 14,4 C 84 % 1016,9 hPa 0,0 l/m 0 min 0 min 0 W/m 12,9 km/h (3 Bft) 97,83 %
27.08.2022 01:42 18,8 C 18,3 C 14,4 C 85 % 1016,9 hPa 0,0 l/m 0 min 0 min 0 W/m 9,7 km/h (2 Bft) 95,74 %
27.08.2022 01:44 18,8 C 18,3 C 14,4 C 85 % 1016,9 hPa 0,0 l/m 0 min 0 min 0 W/m 9,7 km/h (2 Bft) 97,87 %
27.08.2022 01:46 18,8 C 17,8 C 14,4 C 85 % 1016,8 hPa 0,0 l/m 0 min 0 min 0 W/m 12,9 km/h (3 Bft) 97,87 %
27.08.2022 01:48 18,8 C 18,3 C 14,4 C 85 % 1016,9 hPa 0,0 l/m 0 min 0 min 0 W/m 9,7 km/h (2 Bft) 97,87 %
27.08.2022 01:50 18,8 C 17,8 C 14,4 C 85 % 1016,9 hPa 0,0 l/m 0 min 0 min 0 W/m 9,7 km/h (2 Bft) 97,87 %
27.08.2022 01:52 18,7 C 17,8 C 14,4 C 85 % 1016,9 hPa 0,0 l/m 0 min 0 min 0 W/m 6,4 km/h (2 Bft) 97,83 %
27.08.2022 01:54 18,7 C 17,8 C 14,4 C 85 % 1016,9 hPa 0,0 l/m 0 min 0 min 0 W/m 12,9 km/h (3 Bft) 97,87 %
27.08.2022 01:56 18,7 C 17,8 C 14,4 C 85 % 1016,9 hPa 0,0 l/m 0 min 0 min 0 W/m 9,7 km/h (2 Bft) 97,87 %
27.08.2022 01:58 18,7 C 17,8 C 14,4 C 85 % 1016,9 hPa 0,0 l/m 0 min 0 min 0 W/m 12,9 km/h (3 Bft) 97,87 %
27.08.2022 02:00 18,7 C 17,8 C 14,4 C 85 % 1016,9 hPa 0,0 l/m 0 min 0 min 0 W/m 9,7 km/h (2 Bft) 95,74 %
27.08.2022 02:02 18,7 C 17,8 C 14,4 C 85 % 1016,9 hPa 0,0 l/m 0 min 0 min 0 W/m 12,9 km/h (3 Bft) 93,62 %
27.08.2022 02:04 18,7 C 17,8 C 14,4 C 85 % 1016,9 hPa 0,0 l/m 0 min 0 min 0 W/m 6,4 km/h (2 Bft) 97,83 %
27.08.2022 02:06 18,7 C 17,8 C 14,4 C 85 % 1016,9 hPa 0,0 l/m 0 min 0 min 0 W/m 9,7 km/h (2 Bft) 98,31 %
27.08.2022 02:08 18,7 C 17,8 C 14,4 C 85 % 1016,9 hPa 0,0 l/m 0 min 0 min 0 W/m 6,4 km/h (2 Bft) 97,14 %
27.08.2022 02:10 18,6 C 17,8 C 14,4 C 85 % 1016,9 hPa 0,0 l/m 0 min 0 min 0 W/m 12,9 km/h (3 Bft) 95,74 %
27.08.2022 02:12 18,6 C 17,8 C 14,4 C 86 % 1016,9 hPa 0,0 l/m 0 min 0 min 0 W/m 3,2 km/h (1 Bft) 97,87 %
27.08.2022 02:14 18,6 C 17,8 C 14,4 C 86 % 1016,8 hPa 0,0 l/m 0 min 0 min 0 W/m 12,9 km/h (3 Bft) 97,87 %
27.08.2022 02:16 18,6 C 17,8 C 14,4 C 86 % 1016,9 hPa 0,0 l/m 0 min 0 min 0 W/m 9,7 km/h (2 Bft) 97,83 %
27.08.2022 02:18 18,6 C 17,8 C 14,4 C 86 % 1016,9 hPa 0,0 l/m 0 min 0 min 0 W/m 6,4 km/h (2 Bft) 97,87 %
27.08.2022 02:20 18,6 C 17,8 C 14,4 C 86 % 1016,8 hPa 0,0 l/m 0 min 0 min 0 W/m 6,4 km/h (2 Bft) 97,87 %
27.08.2022 02:22 18,5 C 17,2 C 13,9 C 86 % 1016,8 hPa 0,0 l/m 0 min 0 min 0 W/m 16,1 km/h (3 Bft) 97,87 %
27.08.2022 02:24 18,4 C 17,2 C 13,9 C 86 % 1016,8 hPa 0,0 l/m 0 min 0 min 0 W/m 22,5 km/h (4 Bft) 95,74 %
27.08.2022 02:26 18,4 C 17,2 C 13,9 C 86 % 1016,8 hPa 0,0 l/m 0 min 0 min 0 W/m 16,1 km/h (3 Bft) 95,74 %
27.08.2022 02:28 18,3 C 17,2 C 13,9 C 87 % 1016,8 hPa 0,0 l/m 0 min 0 min 0 W/m 12,9 km/h (3 Bft) 95,65 %
27.08.2022 02:30 18,3 C 17,2 C 13,9 C 87 % 1016,8 hPa 0,0 l/m 0 min 0 min 0 W/m 9,7 km/h (2 Bft) 93,62 %
27.08.2022 02:32 18,3 C 17,2 C 13,3 C 88 % 1016,8 hPa 0,0 l/m 0 min 0 min 0 W/m 16,1 km/h (3 Bft) 95,74 %
27.08.2022 02:34 18,2 C 17,2 C 13,3 C 88 % 1016,8 hPa 0,0 l/m 0 min 0 min 0 W/m 9,7 km/h (2 Bft) 95,74 %
27.08.2022 02:36 18,1 C 17,2 C 13,3 C 88 % 1016,8 hPa 0,0 l/m 0 min 0 min 0 W/m 9,7 km/h (2 Bft) 93,10 %
27.08.2022 02:38 18,1 C 16,7 C 13,3 C 88 % 1016,8 hPa 0,0 l/m 0 min 0 min 0 W/m 16,1 km/h (3 Bft) 97,22 %
27.08.2022 02:40 18,0 C 17,2 C 13,3 C 89 % 1016,8 hPa 0,0 l/m 0 min 0 min 0 W/m 9,7 km/h (2 Bft) 95,65 %
27.08.2022 02:42 18,0 C 16,7 C 13,3 C 89 % 1016,8 hPa 0,0 l/m 0 min 0 min 0 W/m 12,9 km/h (3 Bft) 95,74 %
27.08.2022 02:44 17,9 C 17,2 C 13,3 C 89 % 1016,8 hPa 0,0 l/m 0 min 0 min 0 W/m 6,4 km/h (2 Bft) 95,74 %
27.08.2022 02:46 17,9 C 17,2 C 13,3 C 89 % 1016,8 hPa 0,0 l/m 0 min 0 min 0 W/m 16,1 km/h (3 Bft) 94,00 %
27.08.2022 02:48 17,8 C 16,7 C 13,3 C 89 % 1016,8 hPa 0,0 l/m 0 min 0 min 0 W/m 19,3 km/h (3 Bft) 95,74 %
27.08.2022 02:50 17,8 C 16,7 C 13,3 C 89 % 1016,7 hPa 0,0 l/m 0 min 0 min 0 W/m 12,9 km/h (3 Bft) 95,65 %
27.08.2022 02:52 17,7 C 16,7 C 13,3 C 89 % 1016,7 hPa 0,0 l/m 0 min 0 min 0 W/m 9,7 km/h (2 Bft) 95,74 %
27.08.2022 02:54 17,7 C 16,7 C 13,3 C 89 % 1016,7 hPa 0,0 l/m 0 min 0 min 0 W/m 16,1 km/h (3 Bft) 95,74 %
27.08.2022 02:56 17,6 C 16,7 C 13,3 C 89 % 1016,7 hPa 0,0 l/m 0 min 0 min 0 W/m 12,9 km/h (3 Bft) 97,87 %
27.08.2022 02:58 17,6 C 16,7 C 13,3 C 89 % 1016,7 hPa 0,0 l/m 0 min 0 min 0 W/m 12,9 km/h (3 Bft) 97,87 %
27.08.2022 03:00 17,6 C 16,7 C 13,3 C 89 % 1016,7 hPa 0,0 l/m 0 min 0 min 0 W/m 12,9 km/h (3 Bft) 97,87 %
27.08.2022 03:02 17,6 C 16,7 C 13,3 C 89 % 1016,7 hPa 0,0 l/m 0 min 0 min 0 W/m 12,9 km/h (3 Bft) 97,83 %
27.08.2022 03:04 17,6 C 16,7 C 13,3 C 89 % 1016,7 hPa 0,0 l/m 0 min 0 min 0 W/m 9,7 km/h (2 Bft) 95,74 %
27.08.2022 03:06 17,6 C 16,7 C 13,3 C 89 % 1016,7 hPa 0,0 l/m 0 min 0 min 0 W/m 12,9 km/h (3 Bft) 94,92 %
27.08.2022 03:08 17,5 C 16,7 C 13,3 C 89 % 1016,7 hPa 0,0 l/m 0 min 0 min 0 W/m 6,4 km/h (2 Bft) 100,00 %
27.08.2022 03:10 17,5 C 17,2 C 13,3 C 89 % 1016,7 hPa 0,0 l/m 0 min 0 min 0 W/m 3,2 km/h (1 Bft) 97,87 %
27.08.2022 03:12 17,6 C 17,2 C 13,3 C 89 % 1016,7 hPa 0,0 l/m 0 min 0 min 0 W/m 3,2 km/h (1 Bft) 93,62 %
27.08.2022 03:14 17,6 C 17,2 C 13,3 C 88 % 1016,6 hPa 0,0 l/m 0 min 0 min 0 W/m 6,4 km/h (2 Bft) 97,83 %
27.08.2022 03:16 17,5 C 16,7 C 13,3 C 88 % 1016,6 hPa 0,0 l/m 0 min 0 min 0 W/m 16,1 km/h (3 Bft) 97,87 %
27.08.2022 03:18 17,5 C 16,7 C 13,3 C 88 % 1016,6 hPa 0,0 l/m 0 min 0 min 0 W/m 16,1 km/h (3 Bft) 100,00 %
27.08.2022 03:20 17,6 C 17,2 C 13,9 C 88 % 1016,5 hPa 0,0 l/m 0 min 0 min 0 W/m 12,9 km/h (3 Bft) 100,00 %
27.08.2022 03:22 17,6 C 17,2 C 13,9 C 88 % 1016,6 hPa 0,0 l/m 0 min 0 min 0 W/m 6,4 km/h (2 Bft) 100,00 %
27.08.2022 03:24 17,6 C 17,2 C 13,9 C 88 % 1016,6 hPa 0,0 l/m 0 min 0 min 0 W/m 3,2 km/h (1 Bft) 98,15 %
27.08.2022 03:26 17,6 C 17,2 C 13,9 C 87 % 1016,6 hPa 0,0 l/m 0 min 0 min 0 W/m 12,9 km/h (3 Bft) 100,00 %
27.08.2022 03:28 17,6 C 17,2 C 13,9 C 87 % 1016,6 hPa 0,0 l/m 0 min 0 min 0 W/m 3,2 km/h (1 Bft) 100,00 %
27.08.2022 03:30 17,6 C 17,2 C 13,9 C 87 % 1016,6 hPa 0,0 l/m 0 min 0 min 0 W/m 6,4 km/h (2 Bft) 100,00 %
27.08.2022 03:32 17,6 C 17,2 C 13,9 C 87 % 1016,6 hPa 0,0 l/m 0 min 0 min 0 W/m 12,9 km/h (3 Bft) 97,87 %
27.08.2022 03:34 17,6 C 17,2 C 13,9 C 87 % 1016,6 hPa 0,0 l/m 0 min 0 min 0 W/m 6,4 km/h (2 Bft) 100,00 %
27.08.2022 03:36 17,6 C 17,2 C 13,9 C 86 % 1016,6 hPa 0,0 l/m 0 min 0 min 0 W/m 6,4 km/h (2 Bft) 100,00 %
27.08.2022 03:38 17,6 C 17,2 C 13,9 C 86 % 1016,5 hPa 0,0 l/m 0 min 0 min 0 W/m 6,4 km/h (2 Bft) 100,00 %
27.08.2022 03:40 17,6 C 17,2 C 13,9 C 86 % 1016,5 hPa 0,0 l/m 0 min 0 min 0 W/m 12,9 km/h (3 Bft) 100,00 %
27.08.2022 03:42 17,7 C 17,2 C 13,9 C 86 % 1016,5 hPa 0,0 l/m 0 min 0 min 0 W/m 9,7 km/h (2 Bft) 100,00 %
27.08.2022 03:44 17,7 C 17,2 C 13,9 C 86 % 1016,5 hPa 0,0 l/m 0 min 0 min 0 W/m 6,4 km/h (2 Bft) 100,00 %
27.08.2022 03:46 17,7 C 17,2 C 13,9 C 86 % 1016,6 hPa 0,0 l/m 0 min 0 min 0 W/m 9,7 km/h (2 Bft) 100,00 %
27.08.2022 03:48 17,7 C 17,2 C 13,9 C 86 % 1016,5 hPa 0,0 l/m 0 min 0 min 0 W/m 19,3 km/h (3 Bft) 100,00 %
27.08.2022 03:50 17,7 C 17,2 C 13,9 C 86 % 1016,5 hPa 0,0 l/m 0 min 0 min 0 W/m 6,4 km/h (2 Bft) 100,00 %
27.08.2022 03:52 17,7 C 17,2 C 13,9 C 86 % 1016,6 hPa 0,0 l/m 0 min 0 min 0 W/m 9,7 km/h (2 Bft) 100,00 %
27.08.2022 03:54 17,7 C 17,2 C 13,9 C 86 % 1016,6 hPa 0,0 l/m 0 min 0 min 0 W/m 6,4 km/h (2 Bft) 100,00 %
27.08.2022 03:56 17,7 C 17,2 C 13,9 C 86 % 1016,5 hPa 0,0 l/m 0 min 0 min 0 W/m 6,4 km/h (2 Bft) 100,00 %
27.08.2022 03:58 17,8 C 17,2 C 13,9 C 86 % 1016,5 hPa 0,0 l/m 0 min 0 min 0 W/m 6,4 km/h (2 Bft) 100,00 %
27.08.2022 04:00 17,8 C 17,2 C 13,9 C 85 % 1016,4 hPa 0,0 l/m 0 min 0 min 0 W/m 12,9 km/h (3 Bft) 100,00 %
27.08.2022 04:05 17,8 C 17,2 C 13,9 C 85 % 1016,4 hPa 0,0 l/m 0 min 0 min 0 W/m 12,9 km/h (3 Bft) 98,78 %
27.08.2022 04:06 17,8 C 17,2 C 13,9 C 85 % 1016,4 hPa 0,0 l/m 0 min 0 min 0 W/m 6,4 km/h (2 Bft) 95,83 %
27.08.2022 04:08 17,8 C 17,2 C 13,9 C 85 % 1016,4 hPa 0,0 l/m 0 min 0 min 0 W/m 6,4 km/h (2 Bft) 100,00 %
27.08.2022 04:10 17,8 C 17,2 C 13,9 C 85 % 1016,4 hPa 0,0 l/m 0 min 0 min 0 W/m 6,4 km/h (2 Bft) 95,74 %
27.08.2022 04:12 17,8 C 17,2 C 13,9 C 85 % 1016,4 hPa 0,0 l/m 0 min 0 min 0 W/m 19,3 km/h (3 Bft) 97,87 %
27.08.2022 04:14 17,8 C 17,2 C 13,9 C 85 % 1016,4 hPa 0,0 l/m 0 min 0 min 0 W/m 6,4 km/h (2 Bft) 97,83 %
27.08.2022 04:16 17,8 C 17,2 C 13,9 C 85 % 1016,3 hPa 0,0 l/m 0 min 0 min 0 W/m 9,7 km/h (2 Bft) 95,74 %
27.08.2022 04:18 17,8 C 17,2 C 13,9 C 85 % 1016,4 hPa 0,0 l/m 0 min 0 min 0 W/m 9,7 km/h (2 Bft) 97,87 %
27.08.2022 04:20 17,8 C 17,2 C 13,9 C 85 % 1016,4 hPa 0,0 l/m 0 min 0 min 0 W/m 3,2 km/h (1 Bft) 97,87 %
27.08.2022 04:22 17,8 C 17,2 C 13,9 C 85 % 1016,3 hPa 0,0 l/m 0 min 0 min 0 W/m 9,7 km/h (2 Bft) 95,74 %
27.08.2022 04:24 17,8 C 17,2 C 13,9 C 84 % 1016,4 hPa 0,0 l/m 0 min 0 min 0 W/m 12,9 km/h (3 Bft) 97,83 %
27.08.2022 04:26 17,8 C 17,2 C 13,9 C 84 % 1016,4 hPa 0,0 l/m 0 min 0 min 0 W/m 16,1 km/h (3 Bft) 97,87 %
27.08.2022 04:28 17,8 C 17,2 C 13,9 C 84 % 1016,3 hPa 0,0 l/m 0 min 0 min 0 W/m 6,4 km/h (2 Bft) 97,87 %
27.08.2022 04:30 17,8 C 17,2 C 13,9 C 84 % 1016,3 hPa 0,0 l/m 0 min 0 min 0 W/m 12,9 km/h (3 Bft) 97,87 %
27.08.2022 04:32 17,8 C 17,2 C 13,9 C 84 % 1016,3 hPa 0,0 l/m 0 min 0 min 0 W/m 12,9 km/h (3 Bft) 93,62 %
27.08.2022 04:34 17,8 C 17,2 C 13,9 C 84 % 1016,3 hPa 0,0 l/m 0 min 0 min 0 W/m 19,3 km/h (3 Bft) 95,74 %
27.08.2022 04:36 17,8 C 17,2 C 13,9 C 84 % 1016,3 hPa 0,0 l/m 0 min 0 min 0 W/m 9,7 km/h (2 Bft) 94,83 %
27.08.2022 04:38 17,8 C 17,2 C 13,9 C 84 % 1016,3 hPa 0,0 l/m 0 min 0 min 0 W/m 6,4 km/h (2 Bft) 97,14 %
27.08.2022 04:40 17,8 C 17,2 C 13,9 C 84 % 1016,3 hPa 0,0 l/m 0 min 0 min 0 W/m 9,7 km/h (2 Bft) 95,74 %
27.08.2022 04:42 17,8 C 17,2 C 13,9 C 84 % 1016,3 hPa 0,0 l/m 0 min 0 min 0 W/m 6,4 km/h (2 Bft) 95,74 %
27.08.2022 04:44 17,8 C 17,2 C 13,9 C 84 % 1016,3 hPa 0,0 l/m 0 min 0 min 0 W/m 3,2 km/h (1 Bft) 93,62 %
27.08.2022 04:46 17,8 C 17,2 C 13,9 C 84 % 1016,3 hPa 0,0 l/m 0 min 0 min 0 W/m 16,1 km/h (3 Bft) 95,74 %
27.08.2022 04:48 17,8 C 17,2 C 13,9 C 84 % 1016,3 hPa 0,0 l/m 0 min 0 min 0 W/m 19,3 km/h (3 Bft) 97,87 %
27.08.2022 04:50 17,8 C 17,2 C 13,9 C 84 % 1016,3 hPa 0,0 l/m 0 min 0 min 0 W/m 16,1 km/h (3 Bft) 97,83 %
27.08.2022 04:52 17,8 C 17,2 C 13,9 C 84 % 1016,3 hPa 0,0 l/m 0 min 0 min 0 W/m 9,7 km/h (2 Bft) 95,74 %
27.08.2022 04:54 17,8 C 17,2 C 13,9 C 84 % 1016,3 hPa 0,0 l/m 0 min 0 min 0 W/m 12,9 km/h (3 Bft) 97,87 %
27.08.2022 04:56 17,8 C 17,2 C 13,9 C 84 % 1016,3 hPa 0,0 l/m 0 min 0 min 0 W/m 6,4 km/h (2 Bft) 93,62 %
27.08.2022 04:58 17,8 C 17,2 C 13,9 C 84 % 1016,2 hPa 0,0 l/m 0 min 0 min 0 W/m 9,7 km/h (2 Bft) 97,87 %
27.08.2022 05:00 17,8 C 17,2 C 13,9 C 84 % 1016,2 hPa 0,0 l/m 0 min 0 min 0 W/m 6,4 km/h (2 Bft) 97,87 %
27.08.2022 05:02 17,8 C 17,2 C 13,9 C 85 % 1016,3 hPa 0,0 l/m 0 min 0 min 0 W/m 9,7 km/h (2 Bft) 95,65 %
27.08.2022 05:04 17,8 C 17,2 C 13,9 C 85 % 1016,3 hPa 0,0 l/m 0 min 0 min 0 W/m 6,4 km/h (2 Bft) 97,87 %
27.08.2022 05:06 17,8 C 17,2 C 13,9 C 84 % 1016,2 hPa 0,0 l/m 0 min 0 min 0 W/m 16,1 km/h (3 Bft) 94,92 %
27.08.2022 05:08 17,8 C 16,7 C 13,9 C 85 % 1016,2 hPa 0,0 l/m 0 min 0 min 0 W/m 9,7 km/h (2 Bft) 100,00 %
27.08.2022 05:10 17,8 C 16,7 C 13,3 C 85 % 1016,1 hPa 0,0 l/m 0 min 0 min 0 W/m 12,9 km/h (3 Bft) 97,87 %
27.08.2022 05:12 17,7 C 16,7 C 13,3 C 85 % 1016,2 hPa 0,0 l/m 0 min 0 min 0 W/m 6,4 km/h (2 Bft) 97,87 %
27.08.2022 05:14 17,7 C 16,7 C 13,3 C 85 % 1016,1 hPa 0,0 l/m 0 min 0 min 0 W/m 6,4 km/h (2 Bft) 95,65 %
27.08.2022 05:16 17,7 C 16,7 C 13,3 C 85 % 1016,2 hPa 0,0 l/m 0 min 0 min 0 W/m 9,7 km/h (2 Bft) 95,74 %
27.08.2022 05:18 17,7 C 16,7 C 13,3 C 85 % 1016,1 hPa 0,0 l/m 0 min 0 min 0 W/m 12,9 km/h (3 Bft) 97,87 %
27.08.2022 05:20 17,7 C 16,7 C 13,3 C 85 % 1016,1 hPa 0,0 l/m 0 min 0 min 0 W/m 12,9 km/h (3 Bft) 93,62 %
27.08.2022 05:22 17,7 C 16,7 C 13,3 C 85 % 1016,2 hPa 0,0 l/m 0 min 0 min 0 W/m 6,4 km/h (2 Bft) 91,49 %
27.08.2022 05:24 17,6 C 16,7 C 13,3 C 85 % 1016,2 hPa 0,0 l/m 0 min 0 min 0 W/m 22,5 km/h (4 Bft) 97,87 %
27.08.2022 05:26 17,6 C 16,7 C 13,3 C 85 % 1016,2 hPa 0,0 l/m 0 min 0 min 0 W/m 9,7 km/h (2 Bft) 97,83 %
27.08.2022 05:28 17,6 C 16,7 C 13,3 C 86 % 1016,2 hPa 0,0 l/m 0 min 0 min 0 W/m 12,9 km/h (3 Bft) 97,87 %
27.08.2022 05:30 17,6 C 16,7 C 13,3 C 86 % 1016,3 hPa 0,0 l/m 0 min 0 min 0 W/m 3,2 km/h (1 Bft) 95,74 %
27.08.2022 05:32 17,6 C 16,7 C 13,3 C 86 % 1016,3 hPa 0,0 l/m 0 min 0 min 0 W/m 6,4 km/h (2 Bft) 97,87 %
27.08.2022 05:34 17,5 C 16,7 C 13,3 C 86 % 1016,3 hPa 0,0 l/m 0 min 0 min 0 W/m 6,4 km/h (2 Bft) 97,87 %
27.08.2022 05:36 17,5 C 16,7 C 13,3 C 86 % 1016,3 hPa 0,0 l/m 0 min 0 min 0 W/m 12,9 km/h (3 Bft) 96,55 %
27.08.2022 05:38 17,4 C 16,7 C 13,3 C 86 % 1016,3 hPa 0,0 l/m 0 min 0 min 0 W/m 19,3 km/h (3 Bft) 97,14 %
27.08.2022 05:40 17,4 C 16,7 C 13,3 C 86 % 1016,3 hPa 0,0 l/m 0 min 0 min 0 W/m 6,4 km/h (2 Bft) 97,87 %
27.08.2022 05:42 17,4 C 16,7 C 13,3 C 86 % 1016,3 hPa 0,0 l/m 0 min 0 min 0 W/m 9,7 km/h (2 Bft) 95,74 %
27.08.2022 05:44 17,4 C 16,7 C 13,3 C 86 % 1016,3 hPa 0,0 l/m 0 min 0 min 0 W/m 6,4 km/h (2 Bft) 97,87 %
27.08.2022 05:46 17,4 C 16,7 C 13,3 C 87 % 1016,3 hPa 0,0 l/m 0 min 0 min 0 W/m 6,4 km/h (2 Bft) 97,87 %
27.08.2022 05:48 17,3 C 16,7 C 13,3 C 86 % 1016,3 hPa 0,0 l/m 0 min 0 min 0 W/m 9,7 km/h (2 Bft) 95,74 %
27.08.2022 05:50 17,3 C 16,7 C 13,3 C 87 % 1016,3 hPa 0,0 l/m 0 min 0 min 0 W/m 6,4 km/h (2 Bft) 95,65 %
27.08.2022 05:52 17,3 C 16,7 C 13,3 C 87 % 1016,3 hPa 0,0 l/m 0 min 0 min 0 W/m 6,4 km/h (2 Bft) 97,87 %
27.08.2022 05:54 17,3 C 16,7 C 13,3 C 87 % 1016,3 hPa 0,0 l/m 0 min 0 min 0 W/m 6,4 km/h (2 Bft) 97,87 %
27.08.2022 05:56 17,3 C 16,7 C 13,3 C 87 % 1016,3 hPa 0,0 l/m 0 min 0 min 0 W/m 9,7 km/h (2 Bft) 95,74 %
27.08.2022 05:58 17,3 C 16,7 C 13,3 C 87 % 1016,3 hPa 0,0 l/m 0 min 0 min 0 W/m 6,4 km/h (2 Bft) 97,87 %
27.08.2022 06:00 17,3 C 16,7 C 13,3 C 87 % 1016,3 hPa 0,0 l/m 0 min 0 min 0 W/m 6,4 km/h (2 Bft) 97,83 %
27.08.2022 06:02 17,3 C 16,7 C 13,3 C 87 % 1016,3 hPa 0,0 l/m 0 min 0 min 0 W/m 6,4 km/h (2 Bft) 95,74 %
27.08.2022 06:04 17,3 C 16,7 C 13,3 C 87 % 1016,3 hPa 0,0 l/m 0 min 0 min 0 W/m 6,4 km/h (2 Bft) 97,87 %
27.08.2022 06:08 17,3 C 16,7 C 13,3 C 86 % 1016,3 hPa 0,0 l/m 0 min 0 min 0 W/m 9,7 km/h (2 Bft) 96,00 %
27.08.2022 06:10 17,3 C 16,7 C 13,3 C 86 % 1016,3 hPa 0,0 l/m 0 min 0 min 0 W/m 16,1 km/h (3 Bft) 97,87 %
27.08.2022 06:12 17,3 C 16,7 C 13,3 C 86 % 1016,3 hPa 0,0 l/m 0 min 0 min 0 W/m 6,4 km/h (2 Bft) 97,87 %
27.08.2022 06:14 17,3 C 16,7 C 13,3 C 86 % 1016,3 hPa 0,0 l/m 0 min 0 min 0 W/m 19,3 km/h (3 Bft) 95,74 %
27.08.2022 06:16 17,3 C 16,7 C 13,3 C 86 % 1016,3 hPa 0,0 l/m 0 min 0 min 0 W/m 6,4 km/h (2 Bft) 97,83 %
27.08.2022 06:18 17,3 C 16,7 C 13,3 C 86 % 1016,4 hPa 0,0 l/m 0 min 0 min 0 W/m 6,4 km/h (2 Bft) 97,87 %
27.08.2022 06:20 17,3 C 16,7 C 13,3 C 86 % 1016,4 hPa 0,0 l/m 0 min 0 min 0 W/m 3,2 km/h (1 Bft) 97,83 %
27.08.2022 06:22 17,3 C 16,7 C 13,3 C 86 % 1016,5 hPa 0,0 l/m 0 min 0 min 0 W/m 3,2 km/h (1 Bft) 95,74 %
27.08.2022 06:24 17,3 C 16,7 C 13,3 C 86 % 1016,4 hPa 0,0 l/m 0 min 0 min 0 W/m 6,4 km/h (2 Bft) 97,87 %
27.08.2022 06:26 17,4 C 16,7 C 13,3 C 86 % 1016,4 hPa 0,0 l/m 0 min 0 min 0 W/m 6,4 km/h (2 Bft) 95,74 %
27.08.2022 06:28 17,4 C 16,7 C 13,3 C 86 % 1016,4 hPa 0,0 l/m 0 min 0 min 0 W/m 6,4 km/h (2 Bft) 97,83 %
27.08.2022 06:30 17,4 C 16,7 C 13,3 C 86 % 1016,5 hPa 0,0 l/m 0 min 0 min 0 W/m 3,2 km/h (1 Bft) 97,87 %
27.08.2022 06:32 17,3 C 16,7 C 13,3 C 86 % 1016,5 hPa 0,0 l/m 0 min 0 min 0 W/m 6,4 km/h (2 Bft) 97,87 %
27.08.2022 06:36 17,4 C 16,7 C 13,3 C 85 % 1016,5 hPa 0,0 l/m 0 min 0 min 0 W/m 3,2 km/h (1 Bft) 100,00 %
27.08.2022 06:38 17,4 C 16,7 C 13,3 C 85 % 1016,5 hPa 0,0 l/m 0 min 0 min 0 W/m 9,7 km/h (2 Bft) 97,92 %
27.08.2022 06:43 17,4 C 16,7 C 13,3 C 85 % 1016,6 hPa 0,0 l/m 0 min 0 min 0 W/m 9,7 km/h (2 Bft) 98,15 %
27.08.2022 06:44 17,4 C 16,7 C 13,3 C 85 % 1016,6 hPa 0,0 l/m 0 min 0 min 0 W/m 9,7 km/h (2 Bft) 100,00 %
27.08.2022 06:46 17,4 C 16,7 C 13,3 C 85 % 1016,6 hPa 0,0 l/m 0 min 0 min 0 W/m 6,4 km/h (2 Bft) 100,00 %
27.08.2022 06:48 17,4 C 16,7 C 13,3 C 85 % 1016,6 hPa 0,0 l/m 0 min 0 min 0 W/m 9,7 km/h (2 Bft) 100,00 %
27.08.2022 06:50 17,4 C 16,7 C 13,3 C 84 % 1016,6 hPa 0,0 l/m 0 min 0 min 0 W/m 6,4 km/h (2 Bft) 100,00 %
27.08.2022 06:52 17,4 C 16,7 C 13,3 C 85 % 1016,6 hPa 0,0 l/m 0 min 0 min 0 W/m 9,7 km/h (2 Bft) 97,87 %
27.08.2022 06:54 17,4 C 16,7 C 13,3 C 84 % 1016,6 hPa 0,0 l/m 0 min 0 min 0 W/m 6,4 km/h (2 Bft) 100,00 %
27.08.2022 06:56 17,4 C 16,7 C 13,3 C 84 % 1016,6 hPa 0,0 l/m 0 min 0 min 0 W/m 3,2 km/h (1 Bft) 100,00 %
27.08.2022 06:58 17,4 C 16,7 C 13,3 C 84 % 1016,6 hPa 0,0 l/m 0 min 0 min 0 W/m 9,7 km/h (2 Bft) 100,00 %
27.08.2022 07:00 17,4 C 16,7 C 13,3 C 84 % 1016,6 hPa 0,0 l/m 0 min 0 min 0 W/m 12,9 km/h (3 Bft) 100,00 %
27.08.2022 07:02 17,4 C 16,7 C 13,3 C 84 % 1016,6 hPa 0,0 l/m 0 min 0 min 0 W/m 12,9 km/h (3 Bft) 100,00 %
27.08.2022 07:04 17,3 C 16,7 C 13,3 C 84 % 1016,6 hPa 0,0 l/m 0 min 0 min 0 W/m 6,4 km/h (2 Bft) 100,00 %
27.08.2022 07:06 17,3 C 16,7 C 13,3 C 84 % 1016,6 hPa 0,0 l/m 0 min 0 min 0 W/m 16,1 km/h (3 Bft) 100,00 %
27.08.2022 07:08 17,3 C 16,7 C 13,3 C 84 % 1016,7 hPa 0,0 l/m 0 min 0 min 0 W/m 6,4 km/h (2 Bft) 97,87 %
27.08.2022 07:10 17,3 C 16,7 C 13,3 C 84 % 1016,6 hPa 0,0 l/m 0 min 0 min 0 W/m 16,1 km/h (3 Bft) 100,00 %
27.08.2022 07:12 17,3 C 16,7 C 13,3 C 84 % 1016,7 hPa 0,0 l/m 0 min 0 min 3 W/m 19,3 km/h (3 Bft) 97,87 %
27.08.2022 07:14 17,3 C 16,7 C 13,3 C 84 % 1016,6 hPa 0,0 l/m 0 min 0 min 5 W/m 9,7 km/h (2 Bft) 100,00 %
27.08.2022 07:16 17,2 C 16,7 C 13,3 C 84 % 1016,7 hPa 0,0 l/m 0 min 0 min 5 W/m 6,4 km/h (2 Bft) 97,83 %
27.08.2022 07:18 17,3 C 16,7 C 13,3 C 84 % 1016,7 hPa 0,0 l/m 0 min 0 min 7 W/m 6,4 km/h (2 Bft) 97,87 %
27.08.2022 07:20 17,2 C 16,7 C 13,3 C 84 % 1016,7 hPa 0,0 l/m 0 min 0 min 7 W/m 16,1 km/h (3 Bft) 97,87 %
27.08.2022 07:22 17,2 C 16,7 C 13,3 C 84 % 1016,7 hPa 0,0 l/m 0 min 0 min 9 W/m 6,4 km/h (2 Bft) 100,00 %
27.08.2022 07:24 17,2 C 16,7 C 13,3 C 84 % 1016,7 hPa 0,0 l/m 0 min 0 min 9 W/m 22,5 km/h (4 Bft) 100,00 %
27.08.2022 07:26 17,2 C 16,7 C 12,8 C 84 % 1016,7 hPa 0,0 l/m 0 min 0 min 10 W/m 12,9 km/h (3 Bft) 97,87 %
27.08.2022 07:28 17,2 C 16,7 C 12,8 C 84 % 1016,8 hPa 0,0 l/m 0 min 0 min 11 W/m 16,1 km/h (3 Bft) 97,87 %
27.08.2022 07:30 17,2 C 16,7 C 12,8 C 84 % 1016,8 hPa 0,0 l/m 0 min 0 min 11 W/m 6,4 km/h (2 Bft) 97,83 %
27.08.2022 07:32 17,2 C 16,7 C 12,8 C 84 % 1016,8 hPa 0,0 l/m 0 min 0 min 11 W/m 16,1 km/h (3 Bft) 97,87 %
27.08.2022 07:34 17,1 C 16,7 C 12,8 C 84 % 1016,7 hPa 0,0 l/m 0 min 0 min 11 W/m 22,5 km/h (4 Bft) 97,87 %
27.08.2022 07:36 17,1 C 16,7 C 12,8 C 84 % 1016,8 hPa 0,0 l/m 0 min 0 min 11 W/m 12,9 km/h (3 Bft) 95,74 %
27.08.2022 07:38 17,1 C 16,7 C 12,8 C 83 % 1016,7 hPa 0,0 l/m 0 min 0 min 11 W/m 9,7 km/h (2 Bft) 97,87 %
27.08.2022 07:40 17,1 C 16,7 C 13,3 C 83 % 1016,8 hPa 0,0 l/m 0 min 0 min 11 W/m 19,3 km/h (3 Bft) 97,83 %
27.08.2022 07:42 17,2 C 16,7 C 13,3 C 83 % 1016,8 hPa 0,0 l/m 0 min 0 min 11 W/m 19,3 km/h (3 Bft) 95,74 %
27.08.2022 07:44 17,2 C 16,7 C 13,3 C 83 % 1016,8 hPa 0,0 l/m 0 min 0 min 12 W/m 12,9 km/h (3 Bft) 97,87 %
27.08.2022 07:46 17,2 C 16,7 C 13,3 C 83 % 1016,8 hPa 0,0 l/m 0 min 0 min 12 W/m 6,4 km/h (2 Bft) 97,87 %
27.08.2022 07:48 17,2 C 16,7 C 13,3 C 83 % 1016,8 hPa 0,0 l/m 0 min 0 min 13 W/m 6,4 km/h (2 Bft) 97,87 %
27.08.2022 07:50 17,2 C 16,7 C 13,3 C 83 % 1016,7 hPa 0,0 l/m 0 min 0 min 14 W/m 6,4 km/h (2 Bft) 97,87 %
27.08.2022 07:52 17,2 C 16,7 C 13,3 C 83 % 1016,8 hPa 0,0 l/m 0 min 0 min 16 W/m 9,7 km/h (2 Bft) 97,87 %
27.08.2022 07:54 17,3 C 16,7 C 13,3 C 82 % 1016,8 hPa 0,0 l/m 0 min 0 min 17 W/m 6,4 km/h (2 Bft) 97,83 %
27.08.2022 07:56 17,3 C 16,7 C 13,3 C 83 % 1016,8 hPa 0,0 l/m 0 min 0 min 18 W/m 6,4 km/h (2 Bft) 95,74 %
27.08.2022 07:58 17,3 C 16,7 C 13,3 C 82 % 1016,8 hPa 0,0 l/m 0 min 0 min 17 W/m 6,4 km/h (2 Bft) 95,74 %
27.08.2022 08:00 17,3 C 16,7 C 13,3 C 82 % 1016,7 hPa 0,0 l/m 0 min 0 min 18 W/m 12,9 km/h (3 Bft) 95,74 %
27.08.2022 08:02 17,3 C 16,7 C 13,3 C 82 % 1016,8 hPa 0,0 l/m 0 min 0 min 18 W/m 9,7 km/h (2 Bft) 93,62 %
27.08.2022 08:04 17,3 C 16,7 C 13,3 C 82 % 1016,8 hPa 0,0 l/m 0 min 0 min 19 W/m 9,7 km/h (2 Bft) 95,65 %
27.08.2022 08:06 17,3 C 16,7 C 13,3 C 82 % 1016,8 hPa 0,0 l/m 0 min 0 min 20 W/m 3,2 km/h (1 Bft) 93,62 %
27.08.2022 08:08 17,3 C 16,7 C 13,3 C 82 % 1016,8 hPa 0,0 l/m 0 min 0 min 21 W/m 3,2 km/h (1 Bft) 95,74 %
27.08.2022 08:10 17,3 C 16,7 C 13,3 C 82 % 1016,9 hPa 0,0 l/m 0 min 0 min 21 W/m 6,4 km/h (2 Bft) 93,62 %
27.08.2022 08:12 17,4 C 16,7 C 13,3 C 82 % 1016,8 hPa 0,0 l/m 0 min 0 min 23 W/m 6,4 km/h (2 Bft) 93,62 %
27.08.2022 08:14 17,4 C 16,7 C 13,3 C 82 % 1016,8 hPa 0,0 l/m 0 min 0 min 25 W/m 3,2 km/h (1 Bft) 93,62 %
27.08.2022 08:16 17,4 C 16,7 C 13,3 C 82 % 1016,7 hPa 0,0 l/m 0 min 0 min 26 W/m 12,9 km/h (3 Bft) 97,83 %
27.08.2022 08:18 17,4 C 16,7 C 13,3 C 82 % 1016,7 hPa 0,0 l/m 0 min 0 min 26 W/m 16,1 km/h (3 Bft) 95,74 %
27.08.2022 08:20 17,4 C 16,7 C 13,3 C 82 % 1016,8 hPa 0,0 l/m 0 min 0 min 26 W/m 6,4 km/h (2 Bft) 95,74 %
27.08.2022 08:22 17,4 C 16,7 C 13,3 C 82 % 1016,9 hPa 0,0 l/m 0 min 0 min 26 W/m 3,2 km/h (1 Bft) 93,62 %
27.08.2022 08:24 17,4 C 17,2 C 13,3 C 82 % 1016,9 hPa 0,0 l/m 0 min 0 min 28 W/m 3,2 km/h (1 Bft) 95,74 %
27.08.2022 08:26 17,5 C 17,2 C 13,3 C 82 % 1016,9 hPa 0,0 l/m 0 min 0 min 28 W/m 6,4 km/h (2 Bft) 95,74 %
27.08.2022 08:28 17,5 C 17,2 C 13,3 C 82 % 1016,9 hPa 0,0 l/m 0 min 0 min 29 W/m 6,4 km/h (2 Bft) 95,65 %
27.08.2022 08:30 17,6 C 17,2 C 13,3 C 81 % 1016,9 hPa 0,0 l/m 0 min 0 min 30 W/m 6,4 km/h (2 Bft) 97,83 %
27.08.2022 08:32 17,6 C 17,2 C 13,3 C 81 % 1016,9 hPa 0,0 l/m 0 min 0 min 32 W/m 6,4 km/h (2 Bft) 95,74 %
27.08.2022 08:34 17,6 C 17,2 C 13,3 C 81 % 1016,9 hPa 0,0 l/m 0 min 0 min 32 W/m 9,7 km/h (2 Bft) 97,87 %
27.08.2022 08:36 17,6 C 17,2 C 13,3 C 81 % 1016,9 hPa 0,0 l/m 0 min 0 min 33 W/m 3,2 km/h (1 Bft) 97,87 %
27.08.2022 08:38 17,6 C 17,2 C 13,3 C 81 % 1016,9 hPa 0,0 l/m 0 min 0 min 33 W/m 6,4 km/h (2 Bft) 95,74 %
27.08.2022 08:40 17,6 C 17,2 C 13,9 C 81 % 1016,9 hPa 0,0 l/m 0 min 0 min 33 W/m 6,4 km/h (2 Bft) 100,00 %
27.08.2022 08:42 17,6 C 17,2 C 13,3 C 81 % 1016,8 hPa 0,0 l/m 0 min 0 min 34 W/m 6,4 km/h (2 Bft) 97,87 %
27.08.2022 08:44 17,6 C 17,2 C 13,3 C 81 % 1016,9 hPa 0,0 l/m 0 min 0 min 35 W/m 9,7 km/h (2 Bft) 97,87 %
27.08.2022 08:46 17,6 C 17,2 C 13,9 C 81 % 1016,9 hPa 0,0 l/m 0 min 0 min 35 W/m 9,7 km/h (2 Bft) 97,87 %
27.08.2022 08:48 17,6 C 17,2 C 13,3 C 81 % 1016,9 hPa 0,0 l/m 0 min 0 min 36 W/m 6,4 km/h (2 Bft) 97,87 %
27.08.2022 08:50 17,6 C 17,2 C 13,9 C 81 % 1016,9 hPa 0,0 l/m 0 min 0 min 38 W/m 3,2 km/h (1 Bft) 97,87 %
27.08.2022 08:52 17,6 C 17,2 C 13,9 C 81 % 1016,9 hPa 0,0 l/m 0 min 0 min 39 W/m 6,4 km/h (2 Bft) 93,48 %
27.08.2022 08:54 17,6 C 17,2 C 13,9 C 81 % 1016,9 hPa 0,0 l/m 0 min 0 min 40 W/m 6,4 km/h (2 Bft) 95,74 %
27.08.2022 08:56 17,6 C 17,2 C 13,9 C 81 % 1016,9 hPa 0,0 l/m 0 min 0 min 42 W/m 0,0 km/h (0 Bft) 95,74 %
27.08.2022 08:58 17,7 C 17,2 C 13,9 C 81 % 1016,9 hPa 0,0 l/m 0 min 0 min 42 W/m 3,2 km/h (1 Bft) 100,00 %
27.08.2022 09:00 17,7 C 17,2 C 13,9 C 81 % 1016,9 hPa 0,0 l/m 0 min 0 min 41 W/m 6,4 km/h (2 Bft) 100,00 %
27.08.2022 09:02 17,7 C 17,2 C 13,9 C 81 % 1016,8 hPa 0,0 l/m 0 min 0 min 43 W/m 3,2 km/h (1 Bft) 97,87 %
27.08.2022 09:04 17,7 C 17,2 C 13,9 C 81 % 1016,8 hPa 0,0 l/m 0 min 0 min 44 W/m 6,4 km/h (2 Bft) 100,00 %
27.08.2022 09:06 17,7 C 17,2 C 13,9 C 81 % 1016,9 hPa 0,0 l/m 0 min 0 min 44 W/m 3,2 km/h (1 Bft) 100,00 %
27.08.2022 09:08 17,8 C 17,2 C 13,9 C 81 % 1016,9 hPa 0,0 l/m 0 min 0 min 44 W/m 3,2 km/h (1 Bft) 100,00 %
27.08.2022 09:10 17,8 C 17,2 C 13,9 C 81 % 1016,9 hPa 0,0 l/m 0 min 0 min 42 W/m 6,4 km/h (2 Bft) 100,00 %
27.08.2022 09:12 17,8 C 17,2 C 13,9 C 81 % 1016,9 hPa 0,0 l/m 0 min 0 min 44 W/m 3,2 km/h (1 Bft) 100,00 %
27.08.2022 09:14 17,8 C 17,2 C 13,9 C 81 % 1016,9 hPa 0,0 l/m 0 min 0 min 44 W/m 3,2 km/h (1 Bft) 100,00 %
27.08.2022 09:16 17,8 C 17,2 C 13,9 C 81 % 1016,9 hPa 0,0 l/m 0 min 0 min 44 W/m 9,7 km/h (2 Bft) 100,00 %
27.08.2022 09:18 17,8 C 17,2 C 13,9 C 80 % 1017,0 hPa 0,0 l/m 0 min 0 min 44 W/m 12,9 km/h (3 Bft) 97,87 %
27.08.2022 09:20 17,8 C 17,2 C 13,9 C 80 % 1017,0 hPa 0,0 l/m 0 min 0 min 45 W/m 6,4 km/h (2 Bft) 100,00 %
27.08.2022 09:22 17,8 C 17,2 C 13,9 C 80 % 1016,9 hPa 0,0 l/m 0 min 0 min 47 W/m 12,9 km/h (3 Bft) 100,00 %
27.08.2022 09:24 17,8 C 17,2 C 13,9 C 80 % 1016,9 hPa 0,0 l/m 0 min 0 min 50 W/m 6,4 km/h (2 Bft) 100,00 %
27.08.2022 09:26 17,8 C 17,2 C 13,9 C 80 % 1016,9 hPa 0,0 l/m 0 min 0 min 52 W/m 12,9 km/h (3 Bft) 100,00 %
27.08.2022 09:28 17,8 C 17,2 C 13,9 C 80 % 1016,9 hPa 0,0 l/m 0 min 0 min 54 W/m 6,4 km/h (2 Bft) 100,00 %
27.08.2022 09:30 17,8 C 17,2 C 13,9 C 80 % 1017,0 hPa 0,0 l/m 0 min 0 min 54 W/m 6,4 km/h (2 Bft) 100,00 %
27.08.2022 09:32 17,8 C 17,2 C 13,9 C 80 % 1017,0 hPa 0,0 l/m 0 min 0 min 54 W/m 9,7 km/h (2 Bft) 97,87 %
27.08.2022 09:34 17,8 C 17,2 C 13,9 C 80 % 1017,0 hPa 0,0 l/m 0 min 0 min 54 W/m 9,7 km/h (2 Bft) 97,87 %
27.08.2022 09:36 17,8 C 17,2 C 13,9 C 80 % 1017,0 hPa 0,0 l/m 0 min 0 min 53 W/m 6,4 km/h (2 Bft) 100,00 %
27.08.2022 09:38 17,8 C 17,2 C 13,9 C 80 % 1017,0 hPa 0,0 l/m 0 min 0 min 54 W/m 3,2 km/h (1 Bft) 97,83 %
27.08.2022 09:40 17,8 C 17,2 C 13,9 C 80 % 1017,0 hPa 0,0 l/m 0 min 0 min 54 W/m 6,4 km/h (2 Bft) 100,00 %
27.08.2022 09:42 17,8 C 17,2 C 13,9 C 81 % 1017,0 hPa 0,0 l/m 0 min 0 min 53 W/m 3,2 km/h (1 Bft) 100,00 %
27.08.2022 09:44 17,8 C 17,2 C 13,9 C 81 % 1017,0 hPa 0,0 l/m 0 min 0 min 53 W/m 6,4 km/h (2 Bft) 97,87 %
27.08.2022 09:46 17,8 C 17,2 C 13,9 C 81 % 1017,0 hPa 0,0 l/m 0 min 0 min 51 W/m 6,4 km/h (2 Bft) 100,00 %
27.08.2022 09:48 17,8 C 17,2 C 13,9 C 81 % 1017,0 hPa 0,0 l/m 0 min 0 min 50 W/m 6,4 km/h (2 Bft) 97,01 %
27.08.2022 09:50 17,8 C 17,2 C 13,9 C 81 % 1017,0 hPa 0,0 l/m 0 min 0 min 51 W/m 6,4 km/h (2 Bft) 95,74 %
27.08.2022 09:52 17,9 C 17,2 C 13,9 C 81 % 1017,0 hPa 0,0 l/m 0 min 0 min 52 W/m 6,4 km/h (2 Bft) 100,00 %
27.08.2022 09:54 17,9 C 17,2 C 13,9 C 81 % 1017,0 hPa 0,0 l/m 0 min 0 min 52 W/m 3,2 km/h (1 Bft) 100,00 %
27.08.2022 09:56 17,9 C 17,8 C 13,9 C 81 % 1017,1 hPa 0,0 l/m 0 min 0 min 54 W/m 6,4 km/h (2 Bft) 100,00 %
27.08.2022 09:58 17,9 C 17,2 C 13,9 C 81 % 1017,1 hPa 0,0 l/m 0 min 0 min 54 W/m 6,4 km/h (2 Bft) 97,87 %
27.08.2022 10:00 17,9 C 17,2 C 13,9 C 81 % 1017,1 hPa 0,0 l/m 0 min 0 min 57 W/m 6,4 km/h (2 Bft) 97,83 %
27.08.2022 10:02 17,9 C 17,2 C 13,9 C 81 % 1017,1 hPa 0,0 l/m 0 min 0 min 58 W/m 12,9 km/h (3 Bft) 95,83 %
27.08.2022 10:04 17,9 C 17,2 C 13,9 C 80 % 1017,1 hPa 0,0 l/m 0 min 0 min 61 W/m 6,4 km/h (2 Bft) 95,74 %
27.08.2022 10:06 17,9 C 17,2 C 13,9 C 80 % 1017,2 hPa 0,0 l/m 0 min 0 min 62 W/m 6,4 km/h (2 Bft) 94,92 %
27.08.2022 10:08 17,9 C 17,2 C 13,9 C 80 % 1017,1 hPa 0,0 l/m 0 min 0 min 59 W/m 12,9 km/h (3 Bft) 97,14 %
27.08.2022 10:10 17,9 C 17,2 C 13,9 C 80 % 1017,1 hPa 0,0 l/m 0 min 0 min 61 W/m 6,4 km/h (2 Bft) 97,87 %
27.08.2022 10:12 17,9 C 17,2 C 13,9 C 80 % 1017,1 hPa 0,0 l/m 0 min 0 min 62 W/m 0,0 km/h (0 Bft) 97,83 %
27.08.2022 10:14 17,9 C 17,8 C 13,9 C 80 % 1017,1 hPa 0,0 l/m 0 min 0 min 68 W/m 0,0 km/h (0 Bft) 95,74 %
27.08.2022 10:16 17,9 C 17,8 C 13,9 C 80 % 1017,1 hPa 0,0 l/m 0 min 0 min 74 W/m 6,4 km/h (2 Bft) 97,87 %
27.08.2022 10:18 18,0 C 17,8 C 13,9 C 80 % 1017,2 hPa 0,0 l/m 0 min 0 min 83 W/m 9,7 km/h (2 Bft) 97,87 %
27.08.2022 10:20 18,0 C 17,8 C 13,9 C 80 % 1017,1 hPa 0,0 l/m 0 min 0 min 90 W/m 12,9 km/h (3 Bft) 97,87 %
27.08.2022 10:22 18,0 C 17,8 C 13,9 C 81 % 1017,2 hPa 0,0 l/m 0 min 0 min 98 W/m 3,2 km/h (1 Bft) 95,74 %
27.08.2022 10:24 18,1 C 17,8 C 13,9 C 80 % 1017,2 hPa 0,0 l/m 0 min 0 min 103 W/m 12,9 km/h (3 Bft) 97,83 %
27.08.2022 10:26 18,1 C 17,8 C 14,4 C 80 % 1017,2 hPa 0,0 l/m 0 min 0 min 109 W/m 6,4 km/h (2 Bft) 97,87 %
27.08.2022 10:28 18,1 C 17,8 C 14,4 C 80 % 1017,2 hPa 0,0 l/m 0 min 0 min 116 W/m 12,9 km/h (3 Bft) 95,74 %
27.08.2022 10:30 18,1 C 17,8 C 14,4 C 80 % 1017,2 hPa 0,0 l/m 0 min 0 min 117 W/m 6,4 km/h (2 Bft) 95,74 %
27.08.2022 10:32 18,1 C 17,8 C 14,4 C 80 % 1017,2 hPa 0,0 l/m 0 min 0 min 119 W/m 12,9 km/h (3 Bft) 97,87 %
27.08.2022 10:34 18,1 C 17,8 C 14,4 C 80 % 1017,2 hPa 0,0 l/m 0 min 0 min 115 W/m 6,4 km/h (2 Bft) 97,87 %
27.08.2022 10:36 18,2 C 17,8 C 14,4 C 80 % 1017,2 hPa 0,0 l/m 0 min 0 min 109 W/m 12,9 km/h (3 Bft) 96,55 %
27.08.2022 10:38 18,2 C 17,8 C 14,4 C 80 % 1017,3 hPa 0,0 l/m 0 min 0 min 110 W/m 6,4 km/h (2 Bft) 97,14 %
27.08.2022 10:40 18,2 C 17,8 C 14,4 C 80 % 1017,3 hPa 0,0 l/m 0 min 0 min 110 W/m 6,4 km/h (2 Bft) 97,87 %
27.08.2022 10:42 18,2 C 17,8 C 14,4 C 80 % 1017,3 hPa 0,0 l/m 0 min 0 min 106 W/m 12,9 km/h (3 Bft) 97,87 %
27.08.2022 10:44 18,2 C 17,8 C 14,4 C 79 % 1017,3 hPa 0,0 l/m 0 min 0 min 113 W/m 12,9 km/h (3 Bft) 95,74 %
27.08.2022 10:46 18,2 C 17,8 C 14,4 C 79 % 1017,3 hPa 0,0 l/m 0 min 0 min 133 W/m 16,1 km/h (3 Bft) 97,87 %
27.08.2022 10:48 18,2 C 17,8 C 14,4 C 79 % 1017,3 hPa 0,0 l/m 0 min 0 min 147 W/m 19,3 km/h (3 Bft) 95,65 %
27.08.2022 10:50 18,3 C 18,3 C 14,4 C 79 % 1017,3 hPa 0,0 l/m 0 min 0 min 155 W/m 9,7 km/h (2 Bft) 97,87 %
27.08.2022 10:52 18,3 C 18,3 C 14,4 C 79 % 1017,4 hPa 0,0 l/m 0 min 0 min 151 W/m 12,9 km/h (3 Bft) 97,87 %
27.08.2022 10:54 18,3 C 18,3 C 14,4 C 79 % 1017,3 hPa 0,0 l/m 0 min 0 min 145 W/m 19,3 km/h (3 Bft) 95,74 %
27.08.2022 10:56 18,3 C 17,8 C 14,4 C 79 % 1017,4 hPa 0,0 l/m 0 min 0 min 142 W/m 19,3 km/h (3 Bft) 97,87 %
27.08.2022 10:58 18,3 C 17,8 C 14,4 C 79 % 1017,4 hPa 0,0 l/m 0 min 0 min 135 W/m 19,3 km/h (3 Bft) 93,62 %
27.08.2022 11:00 18,3 C 18,3 C 14,4 C 79 % 1017,4 hPa 0,0 l/m 0 min 0 min 128 W/m 12,9 km/h (3 Bft) 95,65 %
27.08.2022 11:02 18,3 C 17,8 C 14,4 C 79 % 1017,4 hPa 0,0 l/m 0 min 0 min 124 W/m 12,9 km/h (3 Bft) 95,74 %
27.08.2022 11:04 18,3 C 18,3 C 14,4 C 79 % 1017,4 hPa 0,0 l/m 0 min 0 min 125 W/m 6,4 km/h (2 Bft) 95,74 %
27.08.2022 11:06 18,4 C 18,3 C 14,4 C 79 % 1017,4 hPa 0,0 l/m 0 min 0 min 125 W/m 19,3 km/h (3 Bft) 95,74 %
27.08.2022 11:08 18,4 C 18,3 C 14,4 C 79 % 1017,4 hPa 0,0 l/m 0 min 0 min 123 W/m 16,1 km/h (3 Bft) 95,74 %
27.08.2022 11:10 18,4 C 18,3 C 14,4 C 79 % 1017,4 hPa 0,0 l/m 0 min 0 min 125 W/m 9,7 km/h (2 Bft) 95,74 %
27.08.2022 11:12 18,4 C 18,3 C 14,4 C 79 % 1017,5 hPa 0,0 l/m 0 min 0 min 135 W/m 16,1 km/h (3 Bft) 95,65 %
27.08.2022 11:14 18,4 C 18,3 C 14,4 C 79 % 1017,4 hPa 0,0 l/m 0 min 0 min 148 W/m 6,4 km/h (2 Bft) 95,74 %
27.08.2022 11:16 18,5 C 18,3 C 15,0 C 79 % 1017,5 hPa 0,0 l/m 0 min 0 min 162 W/m 12,9 km/h (3 Bft) 89,36 %
27.08.2022 11:18 18,5 C 18,3 C 15,0 C 79 % 1017,5 hPa 0,0 l/m 0 min 0 min 168 W/m 9,7 km/h (2 Bft) 95,74 %
27.08.2022 11:20 18,6 C 18,9 C 15,0 C 79 % 1017,5 hPa 0,0 l/m 0 min 0 min 173 W/m 16,1 km/h (3 Bft) 95,74 %
27.08.2022 11:22 18,6 C 18,3 C 15,0 C 79 % 1017,5 hPa 0,0 l/m 0 min 0 min 174 W/m 16,1 km/h (3 Bft) 97,83 %
27.08.2022 11:24 18,6 C 18,9 C 15,0 C 79 % 1017,5 hPa 0,0 l/m 0 min 0 min 177 W/m 12,9 km/h (3 Bft) 97,87 %
27.08.2022 11:26 18,6 C 18,3 C 15,0 C 79 % 1017,5 hPa 0,0 l/m 0 min 0 min 181 W/m 12,9 km/h (3 Bft) 97,87 %
27.08.2022 11:28 18,6 C 18,9 C 15,0 C 79 % 1017,4 hPa 0,0 l/m 0 min 0 min 185 W/m 9,7 km/h (2 Bft) 97,87 %
27.08.2022 11:30 18,6 C 18,9 C 15,0 C 78 % 1017,5 hPa 0,0 l/m 0 min 0 min 191 W/m 12,9 km/h (3 Bft) 97,87 %
27.08.2022 11:32 18,7 C 18,9 C 15,0 C 78 % 1017,5 hPa 0,0 l/m 0 min 0 min 196 W/m 9,7 km/h (2 Bft) 97,87 %
27.08.2022 11:34 18,7 C 18,9 C 15,0 C 78 % 1017,5 hPa 0,0 l/m 0 min 0 min 203 W/m 12,9 km/h (3 Bft) 95,65 %
27.08.2022 11:36 18,7 C 18,9 C 15,0 C 78 % 1017,5 hPa 0,0 l/m 0 min 0 min 212 W/m 16,1 km/h (3 Bft) 97,87 %
27.08.2022 11:38 18,7 C 18,9 C 15,0 C 78 % 1017,5 hPa 0,0 l/m 0 min 0 min 218 W/m 12,9 km/h (3 Bft) 97,87 %
27.08.2022 11:40 18,8 C 18,9 C 15,0 C 79 % 1017,5 hPa 0,0 l/m 0 min 0 min 223 W/m 12,9 km/h (3 Bft) 100,00 %
27.08.2022 11:42 18,8 C 18,9 C 15,6 C 79 % 1017,5 hPa 0,0 l/m 0 min 0 min 230 W/m 16,1 km/h (3 Bft) 97,87 %
27.08.2022 11:44 18,9 C 18,9 C 15,6 C 78 % 1017,5 hPa 0,0 l/m 0 min 0 min 236 W/m 12,9 km/h (3 Bft) 100,00 %
27.08.2022 11:46 18,9 C 19,4 C 15,6 C 78 % 1017,5 hPa 0,0 l/m 0 min 0 min 240 W/m 19,3 km/h (3 Bft) 100,00 %
27.08.2022 11:48 19,0 C 19,4 C 15,6 C 78 % 1017,4 hPa 0,0 l/m 0 min 0 min 245 W/m 16,1 km/h (3 Bft) 97,87 %
27.08.2022 11:50 19,0 C 18,9 C 15,6 C 78 % 1017,4 hPa 0,0 l/m 0 min 0 min 250 W/m 16,1 km/h (3 Bft) 100,00 %
27.08.2022 11:52 19,1 C 19,4 C 15,6 C 78 % 1017,4 hPa 0,0 l/m 0 min 0 min 250 W/m 16,1 km/h (3 Bft) 95,74 %
27.08.2022 11:54 19,1 C 19,4 C 15,6 C 78 % 1017,5 hPa 0,0 l/m 0 min 0 min 248 W/m 9,7 km/h (2 Bft) 97,87 %
27.08.2022 11:56 19,1 C 19,4 C 15,6 C 77 % 1017,4 hPa 0,0 l/m 0 min 0 min 246 W/m 12,9 km/h (3 Bft) 97,87 %
27.08.2022 11:58 19,1 C 19,4 C 15,6 C 77 % 1017,5 hPa 0,0 l/m 0 min 0 min 246 W/m 9,7 km/h (2 Bft) 97,83 %
27.08.2022 12:00 19,2 C 19,4 C 15,6 C 77 % 1017,5 hPa 0,0 l/m 0 min 0 min 249 W/m 16,1 km/h (3 Bft) 95,74 %
27.08.2022 12:02 19,2 C 19,4 C 15,6 C 77 % 1017,5 hPa 0,0 l/m 0 min 0 min 251 W/m 9,7 km/h (2 Bft) 97,87 %
27.08.2022 12:04 19,3 C 19,4 C 16,1 C 78 % 1017,5 hPa 0,0 l/m 0 min 0 min 248 W/m 16,1 km/h (3 Bft) 97,87 %
27.08.2022 12:08 19,3 C 19,4 C 15,6 C 77 % 1017,6 hPa 0,0 l/m 0 min 0 min 234 W/m 16,1 km/h (3 Bft) 97,92 %
27.08.2022 12:10 19,3 C 19,4 C 15,6 C 77 % 1017,5 hPa 0,0 l/m 0 min 0 min 220 W/m 9,7 km/h (2 Bft) 97,83 %
27.08.2022 12:12 19,3 C 19,4 C 15,6 C 77 % 1017,5 hPa 0,0 l/m 0 min 0 min 218 W/m 6,4 km/h (2 Bft) 97,87 %
27.08.2022 12:14 19,4 C 19,4 C 15,6 C 76 % 1017,5 hPa 0,0 l/m 0 min 0 min 215 W/m 12,9 km/h (3 Bft) 97,87 %
27.08.2022 12:16 19,4 C 19,4 C 15,6 C 76 % 1017,5 hPa 0,0 l/m 0 min 0 min 211 W/m 9,7 km/h (2 Bft) 95,74 %
27.08.2022 12:18 19,4 C 19,4 C 15,6 C 76 % 1017,5 hPa 0,0 l/m 0 min 0 min 205 W/m 6,4 km/h (2 Bft) 95,74 %
27.08.2022 12:20 19,4 C 19,4 C 15,6 C 76 % 1017,6 hPa 0,0 l/m 0 min 0 min 202 W/m 9,7 km/h (2 Bft) 97,87 %
27.08.2022 12:22 19,4 C 19,4 C 16,1 C 76 % 1017,6 hPa 0,0 l/m 0 min 0 min 206 W/m 9,7 km/h (2 Bft) 97,83 %
27.08.2022 12:24 19,4 C 19,4 C 16,1 C 76 % 1017,6 hPa 0,0 l/m 0 min 0 min 213 W/m 6,4 km/h (2 Bft) 97,87 %
27.08.2022 12:26 19,5 C 19,4 C 16,1 C 76 % 1017,5 hPa 0,0 l/m 0 min 0 min 220 W/m 9,7 km/h (2 Bft) 97,87 %
27.08.2022 12:28 19,5 C 19,4 C 16,1 C 76 % 1017,5 hPa 0,0 l/m 0 min 0 min 224 W/m 9,7 km/h (2 Bft) 97,87 %
27.08.2022 12:30 19,5 C 19,4 C 16,1 C 76 % 1017,5 hPa 0,0 l/m 0 min 0 min 229 W/m 6,4 km/h (2 Bft) 97,87 %
27.08.2022 12:32 19,5 C 19,4 C 16,1 C 76 % 1017,5 hPa 0,0 l/m 0 min 0 min 234 W/m 9,7 km/h (2 Bft) 100,00 %
27.08.2022 12:34 19,6 C 20,0 C 16,1 C 76 % 1017,5 hPa 0,0 l/m 0 min 0 min 238 W/m 6,4 km/h (2 Bft) 100,00 %
27.08.2022 12:36 19,6 C 20,0 C 16,1 C 76 % 1017,5 hPa 0,0 l/m 0 min 0 min 241 W/m 6,4 km/h (2 Bft) 100,00 %
27.08.2022 12:38 19,6 C 20,0 C 16,1 C 76 % 1017,5 hPa 0,0 l/m 0 min 0 min 242 W/m 9,7 km/h (2 Bft) 97,87 %
27.08.2022 12:40 19,6 C 20,0 C 16,1 C 76 % 1017,5 hPa 0,0 l/m 0 min 0 min 243 W/m 12,9 km/h (3 Bft) 97,87 %
27.08.2022 12:42 19,7 C 20,0 C 16,1 C 76 % 1017,5 hPa 0,0 l/m 0 min 0 min 246 W/m 12,9 km/h (3 Bft) 100,00 %
27.08.2022 12:44 19,7 C 20,0 C 16,1 C 75 % 1017,5 hPa 0,0 l/m 0 min 0 min 251 W/m 16,1 km/h (3 Bft) 97,87 %
27.08.2022 12:46 19,7 C 20,0 C 16,1 C 75 % 1017,5 hPa 0,0 l/m 0 min 0 min 255 W/m 12,9 km/h (3 Bft) 97,83 %
27.08.2022 12:48 19,7 C 20,0 C 16,1 C 75 % 1017,4 hPa 0,0 l/m 0 min 0 min 256 W/m 6,4 km/h (2 Bft) 100,00 %
27.08.2022 12:50 19,8 C 20,0 C 16,1 C 75 % 1017,4 hPa 0,0 l/m 0 min 0 min 253 W/m 6,4 km/h (2 Bft) 97,87 %
27.08.2022 12:52 19,8 C 20,0 C 16,1 C 75 % 1017,5 hPa 0,0 l/m 0 min 0 min 245 W/m 6,4 km/h (2 Bft) 100,00 %
27.08.2022 12:54 19,9 C 20,0 C 16,7 C 75 % 1017,5 hPa 0,0 l/m 0 min 0 min 240 W/m 6,4 km/h (2 Bft) 100,00 %
27.08.2022 12:56 19,9 C 20,0 C 16,1 C 74 % 1017,5 hPa 0,0 l/m 0 min 0 min 242 W/m 12,9 km/h (3 Bft) 97,83 %
27.08.2022 12:58 19,9 C 20,0 C 16,1 C 74 % 1017,5 hPa 0,0 l/m 0 min 0 min 247 W/m 6,4 km/h (2 Bft) 100,00 %
27.08.2022 13:00 19,9 C 20,0 C 16,7 C 74 % 1017,5 hPa 0,0 l/m 0 min 0 min 247 W/m 9,7 km/h (2 Bft) 100,00 %
27.08.2022 13:02 19,9 C 20,0 C 16,7 C 74 % 1017,5 hPa 0,0 l/m 0 min 0 min 245 W/m 12,9 km/h (3 Bft) 97,87 %
27.08.2022 13:04 20,0 C 20,6 C 16,7 C 74 % 1017,5 hPa 0,0 l/m 0 min 0 min 244 W/m 6,4 km/h (2 Bft) 100,00 %
27.08.2022 13:06 20,1 C 20,6 C 16,7 C 74 % 1017,4 hPa 0,0 l/m 0 min 0 min 247 W/m 16,1 km/h (3 Bft) 100,00 %
27.08.2022 13:08 20,1 C 20,6 C 16,7 C 74 % 1017,5 hPa 0,0 l/m 0 min 0 min 249 W/m 16,1 km/h (3 Bft) 100,00 %
27.08.2022 13:10 20,1 C 20,6 C 16,7 C 74 % 1017,5 hPa 0,0 l/m 0 min 0 min 253 W/m 6,4 km/h (2 Bft) 100,00 %
27.08.2022 13:12 20,2 C 20,6 C 16,7 C 74 % 1017,5 hPa 0,0 l/m 0 min 0 min 263 W/m 12,9 km/h (3 Bft) 100,00 %
27.08.2022 13:14 20,2 C 20,6 C 16,7 C 74 % 1017,5 hPa 0,0 l/m 0 min 0 min 272 W/m 6,4 km/h (2 Bft) 100,00 %
27.08.2022 13:16 20,2 C 20,6 C 16,7 C 74 % 1017,5 hPa 0,0 l/m 0 min 0 min 278 W/m 3,2 km/h (1 Bft) 100,00 %
27.08.2022 13:18 20,2 C 20,6 C 16,7 C 74 % 1017,5 hPa 0,0 l/m 0 min 0 min 280 W/m 6,4 km/h (2 Bft) 100,00 %
27.08.2022 13:20 20,2 C 20,6 C 16,7 C 74 % 1017,5 hPa 0,0 l/m 0 min 0 min 279 W/m 12,9 km/h (3 Bft) 100,00 %
27.08.2022 13:22 20,2 C 20,6 C 16,7 C 74 % 1017,4 hPa 0,0 l/m 0 min 0 min 283 W/m 9,7 km/h (2 Bft) 100,00 %
27.08.2022 13:24 20,2 C 20,6 C 16,7 C 73 % 1017,4 hPa 0,0 l/m 0 min 0 min 287 W/m 9,7 km/h (2 Bft) 100,00 %
27.08.2022 13:26 20,3 C 20,6 C 16,7 C 73 % 1017,5 hPa 0,0 l/m 0 min 0 min 284 W/m 3,2 km/h (1 Bft) 100,00 %
27.08.2022 13:28 20,3 C 20,6 C 16,7 C 73 % 1017,5 hPa 0,0 l/m 0 min 0 min 283 W/m 12,9 km/h (3 Bft) 95,74 %
27.08.2022 13:30 20,3 C 20,6 C 16,7 C 73 % 1017,5 hPa 0,0 l/m 0 min 0 min 283 W/m 3,2 km/h (1 Bft) 100,00 %
27.08.2022 13:32 20,3 C 20,0 C 16,7 C 72 % 1017,4 hPa 0,0 l/m 0 min 0 min 283 W/m 6,4 km/h (2 Bft) 97,87 %
27.08.2022 13:34 20,2 C 20,6 C 16,7 C 72 % 1017,4 hPa 0,0 l/m 0 min 0 min 283 W/m 12,9 km/h (3 Bft) 93,62 %
27.08.2022 13:36 20,2 C 20,6 C 16,7 C 72 % 1017,4 hPa 0,0 l/m 0 min 0 min 279 W/m 6,4 km/h (2 Bft) 95,65 %
27.08.2022 13:38 20,3 C 20,6 C 16,7 C 73 % 1017,4 hPa 0,0 l/m 0 min 0 min 264 W/m 9,7 km/h (2 Bft) 97,87 %
27.08.2022 13:40 20,3 C 20,6 C 16,7 C 73 % 1017,3 hPa 0,0 l/m 0 min 0 min 254 W/m 12,9 km/h (3 Bft) 97,87 %
27.08.2022 13:42 20,3 C 20,6 C 16,7 C 72 % 1017,4 hPa 0,0 l/m 0 min 0 min 250 W/m 12,9 km/h (3 Bft) 97,87 %
27.08.2022 13:44 20,4 C 20,6 C 16,7 C 72 % 1017,4 hPa 0,0 l/m 0 min 0 min 250 W/m 9,7 km/h (2 Bft) 95,74 %
27.08.2022 13:46 20,4 C 20,6 C 16,7 C 72 % 1017,4 hPa 0,0 l/m 0 min 0 min 250 W/m 9,7 km/h (2 Bft) 93,02 %
27.08.2022 13:48 20,4 C 20,0 C 16,7 C 72 % 1017,3 hPa 0,0 l/m 0 min 0 min 250 W/m 6,4 km/h (2 Bft) 93,62 %
27.08.2022 13:50 20,3 C 20,6 C 16,7 C 72 % 1017,4 hPa 0,0 l/m 0 min 0 min 250 W/m 6,4 km/h (2 Bft) 95,74 %
27.08.2022 13:52 20,3 C 20,0 C 16,7 C 72 % 1017,4 hPa 0,0 l/m 0 min 0 min 248 W/m 3,2 km/h (1 Bft) 93,62 %
27.08.2022 13:54 20,3 C 20,6 C 16,7 C 72 % 1017,4 hPa 0,0 l/m 0 min 0 min 244 W/m 3,2 km/h (1 Bft) 93,62 %
27.08.2022 13:56 20,3 C 20,6 C 16,7 C 72 % 1017,4 hPa 0,0 l/m 0 min 0 min 248 W/m 3,2 km/h (1 Bft) 95,92 %
27.08.2022 13:58 20,3 C 20,6 C 16,7 C 72 % 1017,4 hPa 0,0 l/m 0 min 0 min 257 W/m 6,4 km/h (2 Bft) 93,75 %
27.08.2022 14:00 20,4 C 20,6 C 16,7 C 72 % 1017,4 hPa 0,0 l/m 0 min 0 min 268 W/m 9,7 km/h (2 Bft) 91,49 %
27.08.2022 14:02 20,4 C 21,1 C 17,2 C 72 % 1017,4 hPa 0,0 l/m 0 min 0 min 272 W/m 9,7 km/h (2 Bft) 93,48 %
27.08.2022 14:04 20,5 C 21,1 C 17,2 C 73 % 1017,4 hPa 0,0 l/m 0 min 0 min 270 W/m 9,7 km/h (2 Bft) 93,62 %
27.08.2022 14:06 20,5 C 21,1 C 17,2 C 72 % 1017,4 hPa 0,0 l/m 0 min 0 min 265 W/m 6,4 km/h (2 Bft) 93,62 %
27.08.2022 14:08 20,6 C 21,1 C 17,2 C 72 % 1017,4 hPa 0,0 l/m 0 min 0 min 264 W/m 3,2 km/h (1 Bft) 89,36 %
27.08.2022 14:10 20,6 C 21,1 C 17,2 C 72 % 1017,4 hPa 0,0 l/m 0 min 0 min 265 W/m 3,2 km/h (1 Bft) 93,62 %
27.08.2022 14:12 20,6 C 21,1 C 17,2 C 72 % 1017,3 hPa 0,0 l/m 0 min 0 min 265 W/m 6,4 km/h (2 Bft) 95,65 %
27.08.2022 14:14 20,7 C 21,1 C 17,2 C 72 % 1017,3 hPa 0,0 l/m 0 min 0 min 264 W/m 12,9 km/h (3 Bft) 95,74 %
27.08.2022 14:16 20,7 C 21,1 C 17,2 C 71 % 1017,3 hPa 0,0 l/m 0 min 0 min 264 W/m 12,9 km/h (3 Bft) 95,74 %
27.08.2022 14:18 20,8 C 21,1 C 17,2 C 72 % 1017,3 hPa 0,0 l/m 0 min 0 min 263 W/m 3,2 km/h (1 Bft) 95,74 %
27.08.2022 14:20 20,8 C 21,1 C 17,2 C 71 % 1017,3 hPa 0,0 l/m 0 min 0 min 262 W/m 9,7 km/h (2 Bft) 95,74 %
27.08.2022 14:22 20,8 C 21,1 C 17,2 C 71 % 1017,3 hPa 0,0 l/m 0 min 0 min 262 W/m 19,3 km/h (3 Bft) 95,74 %
27.08.2022 14:24 20,8 C 21,1 C 17,2 C 71 % 1017,3 hPa 0,0 l/m 0 min 0 min 261 W/m 9,7 km/h (2 Bft) 95,65 %
27.08.2022 14:26 20,9 C 21,1 C 17,2 C 71 % 1017,3 hPa 0,0 l/m 0 min 0 min 262 W/m 6,4 km/h (2 Bft) 93,62 %
27.08.2022 14:28 20,9 C 21,1 C 17,2 C 71 % 1017,3 hPa 0,0 l/m 0 min 0 min 264 W/m 9,7 km/h (2 Bft) 95,74 %
27.08.2022 14:30 20,9 C 21,1 C 17,2 C 71 % 1017,3 hPa 0,0 l/m 0 min 0 min 261 W/m 12,9 km/h (3 Bft) 97,87 %
27.08.2022 14:32 20,9 C 21,1 C 17,2 C 70 % 1017,3 hPa 0,0 l/m 0 min 0 min 256 W/m 9,7 km/h (2 Bft) 91,49 %
27.08.2022 14:34 20,9 C 21,1 C 17,2 C 71 % 1017,3 hPa 0,0 l/m 0 min 0 min 247 W/m 9,7 km/h (2 Bft) 95,74 %
27.08.2022 14:36 20,9 C 20,6 C 17,2 C 71 % 1017,3 hPa 0,0 l/m 0 min 0 min 238 W/m 3,2 km/h (1 Bft) 93,48 %
27.08.2022 14:38 20,9 C 20,6 C 17,2 C 71 % 1017,3 hPa 0,0 l/m 0 min 0 min 234 W/m 12,9 km/h (3 Bft) 95,74 %
27.08.2022 14:40 20,9 C 21,1 C 17,2 C 71 % 1017,3 hPa 0,0 l/m 0 min 0 min 233 W/m 9,7 km/h (2 Bft) 95,74 %
27.08.2022 14:42 20,9 C 21,1 C 17,2 C 70 % 1017,3 hPa 0,0 l/m 0 min 0 min 234 W/m 6,4 km/h (2 Bft) 95,74 %
27.08.2022 14:44 20,9 C 21,1 C 17,2 C 71 % 1017,3 hPa 0,0 l/m 0 min 0 min 236 W/m 6,4 km/h (2 Bft) 100,00 %
27.08.2022 14:46 20,9 C 21,1 C 17,2 C 71 % 1017,3 hPa 0,0 l/m 0 min 0 min 236 W/m 12,9 km/h (3 Bft) 100,00 %
27.08.2022 14:48 20,9 C 20,6 C 17,2 C 70 % 1017,2 hPa 0,0 l/m 0 min 0 min 237 W/m 9,7 km/h (2 Bft) 100,00 %
27.08.2022 14:50 20,9 C 21,1 C 17,2 C 70 % 1017,3 hPa 0,0 l/m 0 min 0 min 241 W/m 6,4 km/h (2 Bft) 100,00 %
27.08.2022 14:52 20,9 C 21,1 C 17,2 C 71 % 1017,2 hPa 0,0 l/m 0 min 0 min 243 W/m 6,4 km/h (2 Bft) 100,00 %
27.08.2022 14:54 20,9 C 21,1 C 17,2 C 71 % 1017,3 hPa 0,0 l/m 0 min 0 min 239 W/m 9,7 km/h (2 Bft) 100,00 %
27.08.2022 14:56 20,9 C 20,6 C 17,2 C 70 % 1017,2 hPa 0,0 l/m 0 min 0 min 230 W/m 12,9 km/h (3 Bft) 100,00 %
27.08.2022 14:58 20,9 C 21,1 C 17,2 C 70 % 1017,2 hPa 0,0 l/m 0 min 0 min 219 W/m 3,2 km/h (1 Bft) 100,00 %
27.08.2022 15:00 20,9 C 21,1 C 17,2 C 70 % 1017,2 hPa 0,0 l/m 0 min 0 min 216 W/m 9,7 km/h (2 Bft) 100,00 %
27.08.2022 15:02 20,9 C 21,1 C 17,2 C 70 % 1017,2 hPa 0,0 l/m 0 min 0 min 216 W/m 6,4 km/h (2 Bft) 97,87 %
27.08.2022 15:04 21,0 C 20,6 C 17,2 C 70 % 1017,2 hPa 0,0 l/m 0 min 0 min 220 W/m 9,7 km/h (2 Bft) 100,00 %
27.08.2022 15:06 20,9 C 20,6 C 17,2 C 70 % 1017,1 hPa 0,0 l/m 0 min 0 min 218 W/m 6,4 km/h (2 Bft) 100,00 %
27.08.2022 15:08 20,9 C 20,6 C 17,2 C 70 % 1017,1 hPa 0,0 l/m 0 min 0 min 212 W/m 3,2 km/h (1 Bft) 97,87 %
27.08.2022 15:10 20,9 C 21,1 C 17,2 C 71 % 1017,1 hPa 0,0 l/m 0 min 0 min 207 W/m 6,4 km/h (2 Bft) 97,87 %
27.08.2022 15:12 21,0 C 21,1 C 17,2 C 71 % 1017,1 hPa 0,0 l/m 0 min 0 min 206 W/m 12,9 km/h (3 Bft) 100,00 %
27.08.2022 15:14 21,0 C 20,6 C 17,2 C 70 % 1017,2 hPa 0,0 l/m 0 min 0 min 207 W/m 16,1 km/h (3 Bft) 100,00 %
27.08.2022 15:16 21,0 C 21,1 C 17,2 C 70 % 1017,1 hPa 0,0 l/m 0 min 0 min 208 W/m 3,2 km/h (1 Bft) 97,87 %
27.08.2022 15:18 21,0 C 21,1 C 17,2 C 70 % 1017,1 hPa 0,0 l/m 0 min 0 min 212 W/m 9,7 km/h (2 Bft) 100,00 %
27.08.2022 15:20 21,1 C 21,1 C 17,2 C 70 % 1017,0 hPa 0,0 l/m 0 min 0 min 214 W/m 9,7 km/h (2 Bft) 100,00 %
27.08.2022 15:22 21,1 C 21,1 C 17,2 C 70 % 1017,1 hPa 0,0 l/m 0 min 0 min 218 W/m 16,1 km/h (3 Bft) 100,00 %
27.08.2022 15:24 21,1 C 21,1 C 17,2 C 70 % 1017,1 hPa 0,0 l/m 0 min 0 min 221 W/m 6,4 km/h (2 Bft) 100,00 %
27.08.2022 15:26 21,1 C 21,1 C 17,2 C 71 % 1017,0 hPa 0,0 l/m 0 min 0 min 221 W/m 3,2 km/h (1 Bft) 100,00 %
27.08.2022 15:28 21,1 C 21,1 C 17,8 C 70 % 1017,1 hPa 0,0 l/m 0 min 0 min 220 W/m 6,4 km/h (2 Bft) 100,00 %
27.08.2022 15:30 21,2 C 21,1 C 17,8 C 70 % 1017,0 hPa 0,0 l/m 0 min 0 min 221 W/m 6,4 km/h (2 Bft) 100,00 %
27.08.2022 15:32 21,2 C 21,1 C 17,8 C 70 % 1017,1 hPa 0,0 l/m 0 min 0 min 221 W/m 6,4 km/h (2 Bft) 100,00 %
27.08.2022 15:34 21,3 C 21,1 C 17,8 C 70 % 1017,0 hPa 0,0 l/m 0 min 0 min 219 W/m 3,2 km/h (1 Bft) 100,00 %
27.08.2022 15:36 21,3 C 21,1 C 17,8 C 70 % 1017,0 hPa 0,0 l/m 0 min 0 min 220 W/m 3,2 km/h (1 Bft) 100,00 %
27.08.2022 15:38 21,3 C 21,7 C 17,8 C 70 % 1017,0 hPa 0,0 l/m 0 min 0 min 230 W/m 3,2 km/h (1 Bft) 100,00 %
27.08.2022 15:40 21,3 C 21,7 C 17,8 C 70 % 1017,0 hPa 0,0 l/m 0 min 0 min 244 W/m 3,2 km/h (1 Bft) 100,00 %
27.08.2022 15:42 21,4 C 21,7 C 17,8 C 70 % 1016,9 hPa 0,0 l/m 0 min 0 min 255 W/m 6,4 km/h (2 Bft) 100,00 %
27.08.2022 15:44 21,4 C 21,7 C 17,8 C 70 % 1017,0 hPa 0,0 l/m 0 min 0 min 257 W/m 9,7 km/h (2 Bft) 100,00 %
27.08.2022 15:46 21,4 C 21,7 C 17,8 C 69 % 1016,9 hPa 0,0 l/m 0 min 0 min 248 W/m 3,2 km/h (1 Bft) 100,00 %
27.08.2022 15:48 21,5 C 21,7 C 17,8 C 69 % 1016,9 hPa 0,0 l/m 0 min 0 min 232 W/m 9,7 km/h (2 Bft) 100,00 %
27.08.2022 15:50 21,5 C 21,7 C 17,8 C 69 % 1016,9 hPa 0,0 l/m 0 min 0 min 223 W/m 3,2 km/h (1 Bft) 100,00 %
27.08.2022 15:52 21,6 C 21,7 C 17,8 C 70 % 1016,9 hPa 0,0 l/m 0 min 0 min 215 W/m 3,2 km/h (1 Bft) 100,00 %
27.08.2022 15:54 21,6 C 21,7 C 17,8 C 69 % 1016,8 hPa 0,0 l/m 0 min 0 min 213 W/m 3,2 km/h (1 Bft) 97,87 %
27.08.2022 15:56 21,6 C 21,7 C 17,8 C 69 % 1016,9 hPa 0,0 l/m 0 min 0 min 212 W/m 6,4 km/h (2 Bft) 100,00 %
27.08.2022 15:58 21,6 C 21,7 C 17,8 C 69 % 1016,9 hPa 0,0 l/m 0 min 0 min 204 W/m 16,1 km/h (3 Bft) 97,87 %
27.08.2022 16:00 21,7 C 21,7 C 17,8 C 69 % 1016,9 hPa 0,0 l/m 0 min 0 min 197 W/m 16,1 km/h (3 Bft) 100,00 %
27.08.2022 16:02 21,7 C 21,7 C 17,8 C 68 % 1016,9 hPa 0,0 l/m 0 min 0 min 192 W/m 9,7 km/h (2 Bft) 97,87 %
27.08.2022 16:04 21,7 C 21,7 C 17,8 C 68 % 1016,9 hPa 0,0 l/m 0 min 0 min 195 W/m 19,3 km/h (3 Bft) 95,74 %
27.08.2022 16:06 21,7 C 21,7 C 17,8 C 68 % 1016,8 hPa 0,0 l/m 0 min 0 min 202 W/m 9,7 km/h (2 Bft) 93,62 %
27.08.2022 16:08 21,7 C 21,7 C 17,8 C 68 % 1016,8 hPa 0,0 l/m 0 min 0 min 215 W/m 6,4 km/h (2 Bft) 95,74 %
27.08.2022 16:10 21,8 C 21,7 C 17,8 C 69 % 1016,8 hPa 0,0 l/m 0 min 0 min 229 W/m 12,9 km/h (3 Bft) 93,62 %
27.08.2022 16:12 21,8 C 21,7 C 17,8 C 68 % 1016,8 hPa 0,0 l/m 0 min 0 min 236 W/m 9,7 km/h (2 Bft) 95,65 %
27.08.2022 16:14 21,8 C 21,7 C 17,8 C 69 % 1016,8 hPa 0,0 l/m 0 min 0 min 233 W/m 9,7 km/h (2 Bft) 95,74 %
27.08.2022 16:15 21,8 C 21,7 C 17,8 C 69 % 1016,8 hPa 0,0 l/m 0 min 0 min 232 W/m 12,9 km/h (3 Bft) 99,12 %
27.08.2022 16:20 21,8 C 21,7 C 17,8 C 67 % 1016,8 hPa 0,0 l/m 0 min 0 min 210 W/m 6,4 km/h (2 Bft) 100,00 %
27.08.2022 16:22 21,8 C 21,7 C 17,8 C 68 % 1016,8 hPa 0,0 l/m 0 min 0 min 207 W/m 12,9 km/h (3 Bft) 97,87 %
27.08.2022 16:24 21,8 C 21,7 C 17,8 C 68 % 1016,8 hPa 0,0 l/m 0 min 0 min 211 W/m 12,9 km/h (3 Bft) 95,74 %
27.08.2022 16:26 21,8 C 21,7 C 17,8 C 67 % 1016,8 hPa 0,0 l/m 0 min 0 min 212 W/m 6,4 km/h (2 Bft) 95,65 %
27.08.2022 16:28 21,9 C 21,7 C 18,3 C 68 % 1016,8 hPa 0,0 l/m 0 min 0 min 207 W/m 6,4 km/h (2 Bft) 93,62 %
27.08.2022 16:30 21,9 C 21,7 C 17,8 C 68 % 1016,8 hPa 0,0 l/m 0 min 0 min 200 W/m 6,4 km/h (2 Bft) 95,65 %
27.08.2022 16:32 21,9 C 21,7 C 17,8 C 68 % 1016,9 hPa 0,0 l/m 0 min 0 min 197 W/m 12,9 km/h (3 Bft) 93,62 %
27.08.2022 16:34 21,9 C 21,7 C 17,8 C 67 % 1016,8 hPa 0,0 l/m 0 min 0 min 197 W/m 12,9 km/h (3 Bft) 95,74 %
27.08.2022 16:36 21,9 C 21,7 C 17,8 C 68 % 1016,8 hPa 0,0 l/m 0 min 0 min 193 W/m 6,4 km/h (2 Bft) 95,74 %
27.08.2022 16:38 21,9 C 21,7 C 17,8 C 68 % 1016,8 hPa 0,0 l/m 0 min 0 min 189 W/m 6,4 km/h (2 Bft) 95,74 %
27.08.2022 16:40 21,9 C 21,7 C 17,8 C 67 % 1016,8 hPa 0,0 l/m 0 min 0 min 191 W/m 9,7 km/h (2 Bft) 97,87 %
27.08.2022 16:42 21,9 C 21,7 C 17,8 C 67 % 1016,8 hPa 0,0 l/m 0 min 0 min 197 W/m 9,7 km/h (2 Bft) 95,65 %
27.08.2022 16:44 21,9 C 21,7 C 17,8 C 67 % 1016,8 hPa 0,0 l/m 0 min 0 min 195 W/m 9,7 km/h (2 Bft) 100,00 %
27.08.2022 16:46 21,9 C 21,7 C 17,8 C 68 % 1016,8 hPa 0,0 l/m 0 min 0 min 185 W/m 12,9 km/h (3 Bft) 100,00 %
27.08.2022 16:48 21,9 C 21,7 C 17,8 C 67 % 1016,7 hPa 0,0 l/m 0 min 0 min 176 W/m 12,9 km/h (3 Bft) 100,00 %
27.08.2022 16:50 21,9 C 21,7 C 17,8 C 68 % 1016,8 hPa 0,0 l/m 0 min 0 min 174 W/m 3,2 km/h (1 Bft) 97,87 %
27.08.2022 16:52 21,9 C 21,7 C 17,8 C 68 % 1016,8 hPa 0,0 l/m 0 min 0 min 174 W/m 6,4 km/h (2 Bft) 100,00 %
27.08.2022 16:54 21,9 C 21,7 C 17,8 C 67 % 1016,7 hPa 0,0 l/m 0 min 0 min 170 W/m 12,9 km/h (3 Bft) 100,00 %
27.08.2022 16:56 21,9 C 21,7 C 17,8 C 67 % 1016,8 hPa 0,0 l/m 0 min 0 min 161 W/m 16,1 km/h (3 Bft) 100,00 %
27.08.2022 16:58 21,9 C 21,7 C 17,8 C 67 % 1016,8 hPa 0,0 l/m 0 min 0 min 155 W/m 9,7 km/h (2 Bft) 100,00 %
27.08.2022 17:00 21,9 C 21,7 C 17,8 C 67 % 1016,8 hPa 0,0 l/m 0 min 0 min 154 W/m 6,4 km/h (2 Bft) 97,87 %
27.08.2022 17:02 21,9 C 21,7 C 17,8 C 67 % 1016,8 hPa 0,0 l/m 0 min 0 min 153 W/m 3,2 km/h (1 Bft) 100,00 %
27.08.2022 17:04 21,9 C 21,7 C 17,8 C 67 % 1016,8 hPa 0,0 l/m 0 min 0 min 153 W/m 6,4 km/h (2 Bft) 100,00 %
27.08.2022 17:06 21,9 C 21,7 C 17,8 C 67 % 1016,7 hPa 0,0 l/m 0 min 0 min 155 W/m 6,4 km/h (2 Bft) 97,83 %
27.08.2022 17:08 21,9 C 21,7 C 17,8 C 67 % 1016,7 hPa 0,0 l/m 0 min 0 min 156 W/m 6,4 km/h (2 Bft) 97,87 %
27.08.2022 17:10 21,9 C 21,7 C 17,8 C 67 % 1016,8 hPa 0,0 l/m 0 min 0 min 155 W/m 6,4 km/h (2 Bft) 97,87 %
27.08.2022 17:12 22,0 C 21,7 C 17,8 C 67 % 1016,8 hPa 0,0 l/m 0 min 0 min 149 W/m 6,4 km/h (2 Bft) 97,87 %
27.08.2022 17:14 21,9 C 21,7 C 17,8 C 67 % 1016,8 hPa 0,0 l/m 0 min 0 min 142 W/m 12,9 km/h (3 Bft) 97,87 %
27.08.2022 17:16 22,0 C 21,7 C 17,8 C 67 % 1016,8 hPa 0,0 l/m 0 min 0 min 138 W/m 6,4 km/h (2 Bft) 97,87 %
27.08.2022 17:18 21,9 C 21,7 C 17,8 C 67 % 1016,8 hPa 0,0 l/m 0 min 0 min 135 W/m 16,1 km/h (3 Bft) 97,83 %
27.08.2022 17:20 22,0 C 21,7 C 17,8 C 67 % 1016,9 hPa 0,0 l/m 0 min 0 min 133 W/m 9,7 km/h (2 Bft) 95,74 %
27.08.2022 17:22 22,0 C 21,7 C 17,8 C 67 % 1016,9 hPa 0,0 l/m 0 min 0 min 127 W/m 3,2 km/h (1 Bft) 97,87 %
27.08.2022 17:24 22,0 C 21,7 C 17,8 C 67 % 1016,8 hPa 0,0 l/m 0 min 0 min 121 W/m 3,2 km/h (1 Bft) 97,87 %
27.08.2022 17:26 22,0 C 21,7 C 17,8 C 67 % 1016,8 hPa 0,0 l/m 0 min 0 min 117 W/m 3,2 km/h (1 Bft) 97,87 %
27.08.2022 17:28 22,0 C 21,7 C 17,8 C 67 % 1016,8 hPa 0,0 l/m 0 min 0 min 114 W/m 6,4 km/h (2 Bft) 97,87 %
27.08.2022 17:30 22,0 C 21,7 C 17,8 C 67 % 1016,8 hPa 0,0 l/m 0 min 0 min 111 W/m 6,4 km/h (2 Bft) 97,83 %
27.08.2022 17:32 22,0 C 21,7 C 17,8 C 67 % 1016,8 hPa 0,0 l/m 0 min 0 min 108 W/m 6,4 km/h (2 Bft) 95,74 %
27.08.2022 17:34 22,0 C 21,7 C 17,8 C 67 % 1016,8 hPa 0,0 l/m 0 min 0 min 104 W/m 6,4 km/h (2 Bft) 97,87 %
27.08.2022 17:36 22,0 C 21,7 C 17,8 C 67 % 1016,8 hPa 0,0 l/m 0 min 0 min 98 W/m 6,4 km/h (2 Bft) 97,87 %
27.08.2022 17:38 22,0 C 21,7 C 17,8 C 67 % 1016,8 hPa 0,0 l/m 0 min 0 min 94 W/m 6,4 km/h (2 Bft) 97,87 %
27.08.2022 17:40 22,0 C 21,1 C 17,8 C 67 % 1016,8 hPa 0,0 l/m 0 min 0 min 90 W/m 6,4 km/h (2 Bft) 97,87 %
27.08.2022 17:42 22,0 C 21,1 C 17,8 C 67 % 1016,9 hPa 0,0 l/m 0 min 0 min 88 W/m 6,4 km/h (2 Bft) 95,65 %
27.08.2022 17:44 22,0 C 21,1 C 17,8 C 67 % 1016,8 hPa 0,0 l/m 0 min 0 min 83 W/m 9,7 km/h (2 Bft) 97,87 %
27.08.2022 17:46 22,0 C 21,1 C 17,8 C 67 % 1016,8 hPa 0,0 l/m 0 min 0 min 79 W/m 12,9 km/h (3 Bft) 97,87 %
27.08.2022 17:48 22,0 C 21,1 C 17,8 C 66 % 1016,8 hPa 0,0 l/m 0 min 0 min 76 W/m 9,7 km/h (2 Bft) 97,87 %
27.08.2022 17:50 22,0 C 21,1 C 17,8 C 66 % 1016,8 hPa 0,0 l/m 0 min 0 min 74 W/m 6,4 km/h (2 Bft) 95,74 %
27.08.2022 17:52 22,0 C 21,1 C 17,8 C 66 % 1016,8 hPa 0,0 l/m 0 min 0 min 72 W/m 6,4 km/h (2 Bft) 97,87 %
27.08.2022 17:54 21,9 C 21,1 C 17,8 C 67 % 1016,8 hPa 0,0 l/m 0 min 0 min 72 W/m 6,4 km/h (2 Bft) 97,83 %
27.08.2022 17:56 21,9 C 21,1 C 17,8 C 67 % 1016,8 hPa 0,0 l/m 0 min 0 min 72 W/m 3,2 km/h (1 Bft) 97,87 %
27.08.2022 17:58 21,9 C 21,1 C 17,8 C 67 % 1016,8 hPa 0,0 l/m 0 min 0 min 70 W/m 12,9 km/h (3 Bft) 97,87 %
27.08.2022 18:00 21,9 C 21,1 C 17,8 C 66 % 1016,8 hPa 0,0 l/m 0 min 0 min 70 W/m 9,7 km/h (2 Bft) 97,87 %
27.08.2022 18:02 21,9 C 21,1 C 17,8 C 66 % 1016,8 hPa 0,0 l/m 0 min 0 min 69 W/m 3,2 km/h (1 Bft) 100,00 %
27.08.2022 18:04 21,9 C 21,1 C 17,8 C 67 % 1016,8 hPa 0,0 l/m 0 min 0 min 69 W/m 3,2 km/h (1 Bft) 100,00 %
27.08.2022 18:08 21,9 C 21,1 C 17,8 C 67 % 1016,8 hPa 0,0 l/m 0 min 0 min 67 W/m 3,2 km/h (1 Bft) 99,00 %
27.08.2022 18:10 21,9 C 21,1 C 17,8 C 67 % 1016,8 hPa 0,0 l/m 0 min 0 min 63 W/m 3,2 km/h (1 Bft) 95,83 %
27.08.2022 18:12 21,9 C 21,1 C 17,8 C 67 % 1016,8 hPa 0,0 l/m 0 min 0 min 61 W/m 3,2 km/h (1 Bft) 98,36 %
27.08.2022 18:14 21,9 C 21,1 C 17,8 C 67 % 1016,8 hPa 0,0 l/m 0 min 0 min 59 W/m 6,4 km/h (2 Bft) 97,87 %
27.08.2022 18:16 21,8 C 21,1 C 17,8 C 67 % 1016,8 hPa 0,0 l/m 0 min 0 min 56 W/m 6,4 km/h (2 Bft) 97,87 %
27.08.2022 18:18 21,8 C 21,1 C 17,2 C 67 % 1016,8 hPa 0,0 l/m 0 min 0 min 53 W/m 12,9 km/h (3 Bft) 95,74 %
27.08.2022 18:20 21,8 C 21,1 C 17,2 C 67 % 1016,8 hPa 0,0 l/m 0 min 0 min 50 W/m 6,4 km/h (2 Bft) 97,87 %
27.08.2022 18:22 21,8 C 21,1 C 17,2 C 67 % 1016,8 hPa 0,0 l/m 0 min 0 min 49 W/m 6,4 km/h (2 Bft) 97,83 %
27.08.2022 18:24 21,7 C 21,1 C 17,2 C 67 % 1016,8 hPa 0,0 l/m 0 min 0 min 47 W/m 6,4 km/h (2 Bft) 97,87 %
27.08.2022 18:26 21,7 C 20,6 C 17,2 C 67 % 1016,7 hPa 0,0 l/m 0 min 0 min 47 W/m 6,4 km/h (2 Bft) 95,74 %
27.08.2022 18:28 21,7 C 20,6 C 17,2 C 67 % 1016,8 hPa 0,0 l/m 0 min 0 min 45 W/m 3,2 km/h (1 Bft) 100,00 %
27.08.2022 18:30 21,7 C 20,6 C 17,2 C 67 % 1016,8 hPa 0,0 l/m 0 min 0 min 42 W/m 3,2 km/h (1 Bft) 97,87 %
27.08.2022 18:32 21,7 C 20,6 C 17,2 C 67 % 1016,8 hPa 0,0 l/m 0 min 0 min 40 W/m 6,4 km/h (2 Bft) 97,87 %
27.08.2022 18:34 21,7 C 20,6 C 17,2 C 68 % 1016,8 hPa 0,0 l/m 0 min 0 min 40 W/m 3,2 km/h (1 Bft) 95,65 %
27.08.2022 18:36 21,7 C 20,6 C 17,2 C 68 % 1016,8 hPa 0,0 l/m 0 min 0 min 40 W/m 6,4 km/h (2 Bft) 98,31 %
27.08.2022 18:38 21,7 C 20,6 C 17,2 C 68 % 1016,8 hPa 0,0 l/m 0 min 0 min 38 W/m 6,4 km/h (2 Bft) 91,43 %
27.08.2022 18:40 21,7 C 20,6 C 17,2 C 67 % 1016,8 hPa 0,0 l/m 0 min 0 min 34 W/m 3,2 km/h (1 Bft) 100,00 %
27.08.2022 18:42 21,7 C 20,6 C 17,2 C 67 % 1016,8 hPa 0,0 l/m 0 min 0 min 32 W/m 6,4 km/h (2 Bft) 97,87 %
27.08.2022 18:44 21,7 C 20,6 C 17,2 C 68 % 1016,8 hPa 0,0 l/m 0 min 0 min 32 W/m 3,2 km/h (1 Bft) 97,87 %
27.08.2022 18:46 21,7 C 20,6 C 17,2 C 68 % 1016,7 hPa 0,0 l/m 0 min 0 min 30 W/m 3,2 km/h (1 Bft) 95,65 %
27.08.2022 18:48 21,6 C 20,6 C 17,2 C 68 % 1016,7 hPa 0,0 l/m 0 min 0 min 29 W/m 3,2 km/h (1 Bft) 93,62 %
27.08.2022 18:50 21,6 C 20,6 C 17,2 C 68 % 1016,7 hPa 0,0 l/m 0 min 0 min 28 W/m 3,2 km/h (1 Bft) 97,87 %
27.08.2022 18:52 21,6 C 20,6 C 17,2 C 68 % 1016,7 hPa 0,0 l/m 0 min 0 min 26 W/m 6,4 km/h (2 Bft) 97,87 %
27.08.2022 18:54 21,6 C 20,6 C 17,2 C 68 % 1016,7 hPa 0,0 l/m 0 min 0 min 26 W/m 6,4 km/h (2 Bft) 95,74 %
27.08.2022 18:56 21,6 C 20,6 C 17,2 C 68 % 1016,7 hPa 0,0 l/m 0 min 0 min 25 W/m 3,2 km/h (1 Bft) 97,83 %
27.08.2022 18:58 21,6 C 20,6 C 17,2 C 68 % 1016,7 hPa 0,0 l/m 0 min 0 min 23 W/m 6,4 km/h (2 Bft) 97,87 %
27.08.2022 19:00 21,6 C 20,6 C 17,2 C 68 % 1016,7 hPa 0,0 l/m 0 min 0 min 23 W/m 6,4 km/h (2 Bft) 97,87 %
27.08.2022 19:02 21,6 C 20,6 C 17,2 C 67 % 1016,7 hPa 0,0 l/m 0 min 0 min 23 W/m 3,2 km/h (1 Bft) 95,74 %
27.08.2022 19:04 21,6 C 20,6 C 17,2 C 67 % 1016,6 hPa 0,0 l/m 0 min 0 min 23 W/m 6,4 km/h (2 Bft) 95,74 %
27.08.2022 19:06 21,6 C 20,6 C 17,2 C 67 % 1016,7 hPa 0,0 l/m 0 min 0 min 23 W/m 9,7 km/h (2 Bft) 98,28 %
27.08.2022 19:08 21,5 C 20,6 C 17,2 C 67 % 1016,7 hPa 0,0 l/m 0 min 0 min 21 W/m 6,4 km/h (2 Bft) 97,22 %
27.08.2022 19:10 21,5 C 20,6 C 17,2 C 67 % 1016,7 hPa 0,0 l/m 0 min 0 min 19 W/m 3,2 km/h (1 Bft) 97,83 %
27.08.2022 19:12 21,5 C 20,6 C 17,2 C 68 % 1016,7 hPa 0,0 l/m 0 min 0 min 18 W/m 3,2 km/h (1 Bft) 97,87 %
27.08.2022 19:14 21,5 C 20,6 C 17,2 C 67 % 1016,6 hPa 0,0 l/m 0 min 0 min 18 W/m 3,2 km/h (1 Bft) 95,74 %
27.08.2022 19:16 21,5 C 20,6 C 17,2 C 67 % 1016,7 hPa 0,0 l/m 0 min 0 min 18 W/m 6,4 km/h (2 Bft) 97,87 %
27.08.2022 19:18 21,5 C 20,6 C 17,2 C 67 % 1016,7 hPa 0,0 l/m 0 min 0 min 18 W/m 9,7 km/h (2 Bft) 97,87 %
27.08.2022 19:20 21,5 C 20,6 C 17,2 C 68 % 1016,7 hPa 0,0 l/m 0 min 0 min 18 W/m 9,7 km/h (2 Bft) 95,65 %
27.08.2022 19:22 21,4 C 20,6 C 17,2 C 67 % 1016,7 hPa 0,0 l/m 0 min 0 min 16 W/m 9,7 km/h (2 Bft) 97,87 %
27.08.2022 19:24 21,4 C 20,6 C 16,7 C 67 % 1016,7 hPa 0,0 l/m 0 min 0 min 14 W/m 9,7 km/h (2 Bft) 97,87 %
27.08.2022 19:26 21,4 C 20,6 C 16,7 C 67 % 1016,7 hPa 0,0 l/m 0 min 0 min 14 W/m 3,2 km/h (1 Bft) 100,00 %
27.08.2022 19:28 21,3 C 20,6 C 16,7 C 67 % 1016,7 hPa 0,0 l/m 0 min 0 min 12 W/m 12,9 km/h (3 Bft) 100,00 %
27.08.2022 19:30 21,3 C 20,6 C 16,7 C 67 % 1016,7 hPa 0,0 l/m 0 min 0 min 12 W/m 3,2 km/h (1 Bft) 100,00 %
27.08.2022 19:32 21,3 C 20,6 C 16,7 C 67 % 1016,8 hPa 0,0 l/m 0 min 0 min 12 W/m 12,9 km/h (3 Bft) 100,00 %
27.08.2022 19:34 21,3 C 20,6 C 16,7 C 67 % 1016,7 hPa 0,0 l/m 0 min 0 min 11 W/m 12,9 km/h (3 Bft) 97,87 %
27.08.2022 19:36 21,3 C 20,6 C 16,7 C 67 % 1016,8 hPa 0,0 l/m 0 min 0 min 11 W/m 12,9 km/h (3 Bft) 100,00 %
27.08.2022 19:38 21,3 C 20,6 C 16,7 C 67 % 1016,8 hPa 0,0 l/m 0 min 0 min 11 W/m 6,4 km/h (2 Bft) 100,00 %
27.08.2022 19:40 21,3 C 20,6 C 16,7 C 66 % 1016,8 hPa 0,0 l/m 0 min 0 min 11 W/m 6,4 km/h (2 Bft) 100,00 %
27.08.2022 19:42 21,3 C 20,6 C 16,7 C 66 % 1016,8 hPa 0,0 l/m 0 min 0 min 9 W/m 12,9 km/h (3 Bft) 100,00 %
27.08.2022 19:44 21,3 C 20,6 C 16,7 C 66 % 1016,9 hPa 0,0 l/m 0 min 0 min 9 W/m 3,2 km/h (1 Bft) 100,00 %
27.08.2022 19:46 21,3 C 20,6 C 16,7 C 66 % 1016,8 hPa 0,0 l/m 0 min 0 min 9 W/m 6,4 km/h (2 Bft) 100,00 %
27.08.2022 19:48 21,3 C 20,6 C 16,7 C 67 % 1016,8 hPa 0,0 l/m 0 min 0 min 7 W/m 6,4 km/h (2 Bft) 100,00 %
27.08.2022 19:50 21,3 C 20,6 C 16,7 C 67 % 1016,8 hPa 0,0 l/m 0 min 0 min 7 W/m 3,2 km/h (1 Bft) 100,00 %
27.08.2022 19:52 21,2 C 20,6 C 16,7 C 67 % 1016,8 hPa 0,0 l/m 0 min 0 min 7 W/m 6,4 km/h (2 Bft) 100,00 %
27.08.2022 19:54 21,2 C 20,0 C 16,7 C 67 % 1016,9 hPa 0,0 l/m 0 min 0 min 7 W/m 6,4 km/h (2 Bft) 100,00 %
27.08.2022 19:56 21,2 C 20,0 C 16,7 C 66 % 1016,8 hPa 0,0 l/m 0 min 0 min 7 W/m 6,4 km/h (2 Bft) 95,74 %
27.08.2022 19:58 21,2 C 20,0 C 16,7 C 67 % 1016,8 hPa 0,0 l/m 0 min 0 min 7 W/m 6,4 km/h (2 Bft) 100,00 %
27.08.2022 20:00 21,2 C 20,0 C 16,7 C 66 % 1016,9 hPa 0,0 l/m 0 min 0 min 7 W/m 9,7 km/h (2 Bft) 100,00 %
27.08.2022 20:02 21,2 C 20,0 C 16,7 C 66 % 1016,9 hPa 0,0 l/m 0 min 0 min 6 W/m 6,4 km/h (2 Bft) 97,87 %
27.08.2022 20:04 21,2 C 20,0 C 16,7 C 67 % 1016,9 hPa 0,0 l/m 0 min 0 min 5 W/m 3,2 km/h (1 Bft) 100,00 %
27.08.2022 20:06 21,1 C 20,0 C 16,7 C 67 % 1016,9 hPa 0,0 l/m 0 min 0 min 5 W/m 12,9 km/h (3 Bft) 96,55 %
27.08.2022 20:08 21,1 C 20,0 C 16,7 C 67 % 1017,0 hPa 0,0 l/m 0 min 0 min 5 W/m 6,4 km/h (2 Bft) 97,14 %
27.08.2022 20:10 21,1 C 20,0 C 16,7 C 67 % 1016,9 hPa 0,0 l/m 0 min 0 min 5 W/m 6,4 km/h (2 Bft) 97,87 %
27.08.2022 20:12 21,1 C 20,0 C 16,7 C 67 % 1016,9 hPa 0,0 l/m 0 min 0 min 4 W/m 6,4 km/h (2 Bft) 97,87 %
27.08.2022 20:14 21,1 C 20,0 C 16,7 C 67 % 1016,9 hPa 0,0 l/m 0 min 0 min 0 W/m 6,4 km/h (2 Bft) 95,74 %
27.08.2022 20:16 21,1 C 20,0 C 16,7 C 67 % 1016,9 hPa 0,0 l/m 0 min 0 min 0 W/m 3,2 km/h (1 Bft) 95,74 %
27.08.2022 20:23 21,1 C 20,0 C 16,7 C 67 % 1017,1 hPa 0,0 l/m 0 min 0 min 0 W/m 3,2 km/h (1 Bft) 97,14 %
27.08.2022 20:24 21,1 C 20,0 C 16,7 C 67 % 1017,1 hPa 0,0 l/m 0 min 0 min 0 W/m 3,2 km/h (1 Bft) 100,00 %
27.08.2022 20:26 21,1 C 20,0 C 16,7 C 68 % 1017,1 hPa 0,0 l/m 0 min 0 min 0 W/m 6,4 km/h (2 Bft) 95,74 %
27.08.2022 20:28 21,0 C 20,0 C 16,7 C 68 % 1017,1 hPa 0,0 l/m 0 min 0 min 0 W/m 6,4 km/h (2 Bft) 95,74 %
27.08.2022 20:30 21,0 C 20,0 C 16,7 C 68 % 1017,1 hPa 0,0 l/m 0 min 0 min 0 W/m 6,4 km/h (2 Bft) 93,62 %
27.08.2022 20:32 21,0 C 20,0 C 16,7 C 68 % 1017,1 hPa 0,0 l/m 0 min 0 min 0 W/m 3,2 km/h (1 Bft) 95,74 %
27.08.2022 20:34 20,9 C 20,0 C 16,7 C 68 % 1017,1 hPa 0,0 l/m 0 min 0 min 0 W/m 3,2 km/h (1 Bft) 93,62 %
27.08.2022 20:36 20,9 C 20,0 C 16,7 C 68 % 1017,1 hPa 0,0 l/m 0 min 0 min 0 W/m 3,2 km/h (1 Bft) 97,83 %
27.08.2022 20:38 20,9 C 20,0 C 16,7 C 68 % 1017,1 hPa 0,0 l/m 0 min 0 min 0 W/m 6,4 km/h (2 Bft) 93,62 %
27.08.2022 20:40 20,9 C 20,0 C 16,7 C 68 % 1017,1 hPa 0,0 l/m 0 min 0 min 0 W/m 3,2 km/h (1 Bft) 97,87 %
27.08.2022 20:42 20,9 C 20,0 C 16,7 C 68 % 1017,1 hPa 0,0 l/m 0 min 0 min 0 W/m 3,2 km/h (1 Bft) 100,00 %
27.08.2022 20:44 20,9 C 20,0 C 16,7 C 68 % 1017,1 hPa 0,0 l/m 0 min 0 min 0 W/m 12,9 km/h (3 Bft) 97,87 %
27.08.2022 20:46 20,9 C 20,0 C 16,7 C 68 % 1017,1 hPa 0,0 l/m 0 min 0 min 0 W/m 3,2 km/h (1 Bft) 97,87 %
27.08.2022 20:48 20,9 C 20,0 C 16,7 C 68 % 1017,2 hPa 0,0 l/m 0 min 0 min 0 W/m 6,4 km/h (2 Bft) 97,83 %
27.08.2022 20:50 20,9 C 20,0 C 16,7 C 68 % 1017,2 hPa 0,0 l/m 0 min 0 min 0 W/m 9,7 km/h (2 Bft) 97,87 %
27.08.2022 20:52 21,0 C 20,0 C 16,7 C 68 % 1017,2 hPa 0,0 l/m 0 min 0 min 0 W/m 3,2 km/h (1 Bft) 97,87 %
27.08.2022 20:54 21,1 C 20,6 C 16,7 C 68 % 1017,3 hPa 0,0 l/m 0 min 0 min 0 W/m 3,2 km/h (1 Bft) 97,87 %
27.08.2022 20:56 21,1 C 20,0 C 16,7 C 68 % 1017,3 hPa 0,0 l/m 0 min 0 min 0 W/m 3,2 km/h (1 Bft) 97,87 %
27.08.2022 20:58 21,1 C 20,0 C 16,7 C 68 % 1017,3 hPa 0,0 l/m 0 min 0 min 0 W/m 3,2 km/h (1 Bft) 95,74 %
27.08.2022 21:00 21,1 C 20,0 C 16,7 C 68 % 1017,3 hPa 0,0 l/m 0 min 0 min 0 W/m 3,2 km/h (1 Bft) 97,83 %
27.08.2022 21:02 21,1 C 20,0 C 16,7 C 68 % 1017,3 hPa 0,0 l/m 0 min 0 min 0 W/m 3,2 km/h (1 Bft) 97,87 %
27.08.2022 21:04 21,1 C 20,0 C 16,7 C 68 % 1017,3 hPa 0,0 l/m 0 min 0 min 0 W/m 12,9 km/h (3 Bft) 100,00 %
27.08.2022 21:06 21,1 C 20,0 C 16,7 C 68 % 1017,3 hPa 0,0 l/m 0 min 0 min 0 W/m 3,2 km/h (1 Bft) 97,87 %
27.08.2022 21:08 21,1 C 20,0 C 16,7 C 68 % 1017,3 hPa 0,0 l/m 0 min 0 min 0 W/m 3,2 km/h (1 Bft) 97,87 %
27.08.2022 21:10 21,1 C 20,0 C 16,7 C 68 % 1017,3 hPa 0,0 l/m 0 min 0 min 0 W/m 12,9 km/h (3 Bft) 100,00 %
27.08.2022 21:12 21,1 C 20,0 C 16,7 C 68 % 1017,3 hPa 0,0 l/m 0 min 0 min 0 W/m 3,2 km/h (1 Bft) 100,00 %
27.08.2022 21:14 21,1 C 20,0 C 16,1 C 68 % 1017,3 hPa 0,0 l/m 0 min 0 min 0 W/m 3,2 km/h (1 Bft) 100,00 %
27.08.2022 21:16 21,1 C 20,0 C 16,1 C 68 % 1017,4 hPa 0,0 l/m 0 min 0 min 0 W/m 12,9 km/h (3 Bft) 97,87 %
27.08.2022 21:18 21,1 C 20,0 C 16,1 C 68 % 1017,4 hPa 0,0 l/m 0 min 0 min 0 W/m 3,2 km/h (1 Bft) 97,87 %
27.08.2022 21:20 21,1 C 20,0 C 16,1 C 68 % 1017,4 hPa 0,0 l/m 0 min 0 min 0 W/m 3,2 km/h (1 Bft) 97,87 %
27.08.2022 21:22 21,1 C 20,0 C 16,1 C 68 % 1017,4 hPa 0,0 l/m 0 min 0 min 0 W/m 6,4 km/h (2 Bft) 95,74 %
27.08.2022 21:24 21,1 C 20,0 C 16,1 C 68 % 1017,4 hPa 0,0 l/m 0 min 0 min 0 W/m 3,2 km/h (1 Bft) 95,65 %
27.08.2022 21:26 21,1 C 20,0 C 16,1 C 68 % 1017,4 hPa 0,0 l/m 0 min 0 min 0 W/m 3,2 km/h (1 Bft) 97,87 %
27.08.2022 21:28 21,1 C 20,0 C 16,1 C 68 % 1017,4 hPa 0,0 l/m 0 min 0 min 0 W/m 3,2 km/h (1 Bft) 97,87 %
27.08.2022 21:30 21,1 C 20,0 C 16,1 C 68 % 1017,5 hPa 0,0 l/m 0 min 0 min 0 W/m 3,2 km/h (1 Bft) 97,87 %
27.08.2022 21:32 21,1 C 20,0 C 16,1 C 68 % 1017,5 hPa 0,0 l/m 0 min 0 min 0 W/m 3,2 km/h (1 Bft) 97,87 %
27.08.2022 21:34 21,0 C 20,0 C 16,1 C 68 % 1017,5 hPa 0,0 l/m 0 min 0 min 0 W/m 3,2 km/h (1 Bft) 97,87 %
27.08.2022 21:36 21,0 C 20,0 C 16,1 C 68 % 1017,5 hPa 0,0 l/m 0 min 0 min 0 W/m 6,4 km/h (2 Bft) 97,83 %
27.08.2022 21:38 21,0 C 20,0 C 16,1 C 68 % 1017,5 hPa 0,0 l/m 0 min 0 min 0 W/m 3,2 km/h (1 Bft) 97,87 %
27.08.2022 21:40 21,0 C 20,0 C 16,1 C 68 % 1017,5 hPa 0,0 l/m 0 min 0 min 0 W/m 3,2 km/h (1 Bft) 95,74 %
27.08.2022 21:42 21,0 C 20,0 C 16,1 C 68 % 1017,6 hPa 0,0 l/m 0 min 0 min 0 W/m 3,2 km/h (1 Bft) 97,87 %
27.08.2022 21:44 20,9 C 20,0 C 16,1 C 68 % 1017,6 hPa 0,0 l/m 0 min 0 min 0 W/m 9,7 km/h (2 Bft) 97,87 %
27.08.2022 21:46 20,9 C 20,0 C 16,1 C 68 % 1017,6 hPa 0,0 l/m 0 min 0 min 0 W/m 9,7 km/h (2 Bft) 97,87 %
27.08.2022 21:48 20,9 C 20,0 C 16,1 C 69 % 1017,6 hPa 0,0 l/m 0 min 0 min 0 W/m 6,4 km/h (2 Bft) 97,87 %
27.08.2022 21:50 20,9 C 20,0 C 16,1 C 68 % 1017,6 hPa 0,0 l/m 0 min 0 min 0 W/m 12,9 km/h (3 Bft) 97,83 %
27.08.2022 21:52 20,9 C 20,0 C 16,1 C 69 % 1017,6 hPa 0,0 l/m 0 min 0 min 0 W/m 3,2 km/h (1 Bft) 97,87 %
27.08.2022 21:54 20,9 C 20,0 C 16,1 C 68 % 1017,6 hPa 0,0 l/m 0 min 0 min 0 W/m 3,2 km/h (1 Bft) 95,74 %
27.08.2022 21:56 20,9 C 20,0 C 16,1 C 69 % 1017,6 hPa 0,0 l/m 0 min 0 min 0 W/m 3,2 km/h (1 Bft) 97,87 %
27.08.2022 21:58 20,9 C 20,0 C 16,1 C 69 % 1017,6 hPa 0,0 l/m 0 min 0 min 0 W/m 3,2 km/h (1 Bft) 93,62 %
27.08.2022 22:00 20,9 C 20,0 C 16,1 C 69 % 1017,6 hPa 0,0 l/m 0 min 0 min 0 W/m 3,2 km/h (1 Bft) 100,00 %
27.08.2022 22:02 20,9 C 20,0 C 16,1 C 69 % 1017,6 hPa 0,0 l/m 0 min 0 min 0 W/m 0,0 km/h (0 Bft) 95,74 %
27.08.2022 22:04 20,8 C 20,0 C 16,1 C 69 % 1017,6 hPa 0,0 l/m 0 min 0 min 0 W/m 0,0 km/h (0 Bft) 93,62 %
27.08.2022 22:06 20,9 C 20,0 C 16,1 C 69 % 1017,6 hPa 0,0 l/m 0 min 0 min 0 W/m 3,2 km/h (1 Bft) 97,87 %
27.08.2022 22:08 20,8 C 20,0 C 16,1 C 69 % 1017,6 hPa 0,0 l/m 0 min 0 min 0 W/m 3,2 km/h (1 Bft) 97,87 %
27.08.2022 22:10 20,8 C 20,0 C 16,1 C 69 % 1017,6 hPa 0,0 l/m 0 min 0 min 0 W/m 3,2 km/h (1 Bft) 97,87 %
27.08.2022 22:12 20,8 C 20,0 C 16,1 C 69 % 1017,5 hPa 0,0 l/m 0 min 0 min 0 W/m 3,2 km/h (1 Bft) 97,83 %
27.08.2022 22:14 20,8 C 20,0 C 16,1 C 69 % 1017,6 hPa 0,0 l/m 0 min 0 min 0 W/m 3,2 km/h (1 Bft) 95,74 %
27.08.2022 22:16 20,8 C 20,0 C 16,1 C 69 % 1017,5 hPa 0,0 l/m 0 min 0 min 0 W/m 0,0 km/h (0 Bft) 97,87 %
27.08.2022 22:18 20,8 C 20,0 C 16,1 C 69 % 1017,6 hPa 0,0 l/m 0 min 0 min 0 W/m 3,2 km/h (1 Bft) 97,87 %
27.08.2022 22:20 20,8 C 20,0 C 16,1 C 69 % 1017,6 hPa 0,0 l/m 0 min 0 min 0 W/m 3,2 km/h (1 Bft) 97,87 %
27.08.2022 22:22 20,7 C 20,0 C 16,1 C 69 % 1017,6 hPa 0,0 l/m 0 min 0 min 0 W/m 3,2 km/h (1 Bft) 97,87 %
27.08.2022 22:24 20,7 C 20,0 C 16,1 C 69 % 1017,6 hPa 0,0 l/m 0 min 0 min 0 W/m 3,2 km/h (1 Bft) 97,83 %
27.08.2022 22:26 20,7 C 20,0 C 16,1 C 69 % 1017,6 hPa 0,0 l/m 0 min 0 min 0 W/m 9,7 km/h (2 Bft) 95,74 %
27.08.2022 22:28 20,7 C 20,0 C 16,1 C 69 % 1017,6 hPa 0,0 l/m 0 min 0 min 0 W/m 3,2 km/h (1 Bft) 97,87 %
27.08.2022 22:30 20,7 C 19,4 C 16,1 C 69 % 1017,6 hPa 0,0 l/m 0 min 0 min 0 W/m 3,2 km/h (1 Bft) 97,87 %
27.08.2022 22:32 20,7 C 19,4 C 16,1 C 69 % 1017,6 hPa 0,0 l/m 0 min 0 min 0 W/m 6,4 km/h (2 Bft) 97,87 %
27.08.2022 22:34 20,7 C 20,0 C 16,1 C 69 % 1017,6 hPa 0,0 l/m 0 min 0 min 0 W/m 6,4 km/h (2 Bft) 97,87 %
27.08.2022 22:36 20,7 C 19,4 C 16,1 C 69 % 1017,7 hPa 0,0 l/m 0 min 0 min 0 W/m 3,2 km/h (1 Bft) 100,00 %
27.08.2022 22:38 20,7 C 19,4 C 16,1 C 69 % 1017,6 hPa 0,0 l/m 0 min 0 min 0 W/m 3,2 km/h (1 Bft) 100,00 %
27.08.2022 22:40 20,7 C 19,4 C 16,1 C 69 % 1017,6 hPa 0,0 l/m 0 min 0 min 0 W/m 0,0 km/h (0 Bft) 100,00 %
27.08.2022 22:42 20,7 C 20,0 C 16,1 C 69 % 1017,6 hPa 0,0 l/m 0 min 0 min 0 W/m 3,2 km/h (1 Bft) 97,87 %
27.08.2022 22:44 20,7 C 19,4 C 16,1 C 69 % 1017,6 hPa 0,0 l/m 0 min 0 min 0 W/m 0,0 km/h (0 Bft) 100,00 %
27.08.2022 22:46 20,6 C 19,4 C 16,1 C 69 % 1017,6 hPa 0,0 l/m 0 min 0 min 0 W/m 3,2 km/h (1 Bft) 100,00 %
27.08.2022 22:48 20,6 C 19,4 C 16,1 C 69 % 1017,7 hPa 0,0 l/m 0 min 0 min 0 W/m 0,0 km/h (0 Bft) 100,00 %
27.08.2022 22:50 20,6 C 19,4 C 16,1 C 70 % 1017,7 hPa 0,0 l/m 0 min 0 min 0 W/m 3,2 km/h (1 Bft) 100,00 %
27.08.2022 22:52 20,6 C 19,4 C 16,1 C 70 % 1017,7 hPa 0,0 l/m 0 min 0 min 0 W/m 3,2 km/h (1 Bft) 100,00 %
27.08.2022 22:54 20,6 C 19,4 C 16,1 C 70 % 1017,7 hPa 0,0 l/m 0 min 0 min 0 W/m 3,2 km/h (1 Bft) 100,00 %
27.08.2022 22:56 20,6 C 19,4 C 16,1 C 70 % 1017,7 hPa 0,0 l/m 0 min 0 min 0 W/m 0,0 km/h (0 Bft) 100,00 %
27.08.2022 22:58 20,6 C 19,4 C 16,1 C 70 % 1017,7 hPa 0,0 l/m 0 min 0 min 0 W/m 0,0 km/h (0 Bft) 100,00 %
27.08.2022 23:00 20,6 C 19,4 C 16,1 C 70 % 1017,7 hPa 0,0 l/m 0 min 0 min 0 W/m 3,2 km/h (1 Bft) 97,83 %
27.08.2022 23:02 20,6 C 19,4 C 16,1 C 70 % 1017,8 hPa 0,0 l/m 0 min 0 min 0 W/m 3,2 km/h (1 Bft) 100,00 %
27.08.2022 23:04 20,6 C 19,4 C 16,1 C 70 % 1017,7 hPa 0,0 l/m 0 min 0 min 0 W/m 3,2 km/h (1 Bft) 100,00 %
27.08.2022 23:06 20,5 C 19,4 C 16,1 C 70 % 1017,7 hPa 0,0 l/m 0 min 0 min 0 W/m 3,2 km/h (1 Bft) 97,87 %
27.08.2022 23:08 20,5 C 19,4 C 16,1 C 70 % 1017,7 hPa 0,0 l/m 0 min 0 min 0 W/m 3,2 km/h (1 Bft) 100,00 %
27.08.2022 23:10 20,5 C 19,4 C 15,6 C 71 % 1017,7 hPa 0,0 l/m 0 min 0 min 0 W/m 0,0 km/h (0 Bft) 97,87 %
27.08.2022 23:12 20,5 C 19,4 C 15,6 C 71 % 1017,8 hPa 0,0 l/m 0 min 0 min 0 W/m 0,0 km/h (0 Bft) 100,00 %
27.08.2022 23:14 20,4 C 19,4 C 15,6 C 71 % 1017,8 hPa 0,0 l/m 0 min 0 min 0 W/m 3,2 km/h (1 Bft) 100,00 %
27.08.2022 23:16 20,4 C 19,4 C 15,6 C 71 % 1017,7 hPa 0,0 l/m 0 min 0 min 0 W/m 3,2 km/h (1 Bft) 100,00 %
27.08.2022 23:18 20,4 C 19,4 C 15,6 C 71 % 1017,7 hPa 0,0 l/m 0 min 0 min 0 W/m 0,0 km/h (0 Bft) 100,00 %
27.08.2022 23:20 20,4 C 19,4 C 15,6 C 71 % 1017,8 hPa 0,0 l/m 0 min 0 min 0 W/m 6,4 km/h (2 Bft) 97,87 %
27.08.2022 23:22 20,4 C 19,4 C 15,6 C 71 % 1017,8 hPa 0,0 l/m 0 min 0 min 0 W/m 0,0 km/h (0 Bft) 97,87 %
27.08.2022 23:24 20,4 C 19,4 C 15,6 C 71 % 1017,8 hPa 0,0 l/m 0 min 0 min 0 W/m 3,2 km/h (1 Bft) 95,74 %
27.08.2022 23:26 20,4 C 19,4 C 15,6 C 71 % 1017,8 hPa 0,0 l/m 0 min 0 min 0 W/m 3,2 km/h (1 Bft) 97,87 %
27.08.2022 23:28 20,4 C 19,4 C 15,6 C 71 % 1017,9 hPa 0,0 l/m 0 min 0 min 0 W/m 3,2 km/h (1 Bft) 97,87 %
27.08.2022 23:30 20,4 C 19,4 C 15,6 C 71 % 1017,9 hPa 0,0 l/m 0 min 0 min 0 W/m 3,2 km/h (1 Bft) 97,83 %
27.08.2022 23:32 20,3 C 19,4 C 15,6 C 70 % 1017,9 hPa 0,0 l/m 0 min 0 min 0 W/m 6,4 km/h (2 Bft) 97,87 %
27.08.2022 23:34 20,3 C 19,4 C 15,6 C 71 % 1017,9 hPa 0,0 l/m 0 min 0 min 0 W/m 3,2 km/h (1 Bft) 97,87 %
27.08.2022 23:36 20,3 C 19,4 C 15,6 C 71 % 1017,9 hPa 0,0 l/m 0 min 0 min 0 W/m 3,2 km/h (1 Bft) 98,31 %
27.08.2022 23:38 20,3 C 19,4 C 15,6 C 70 % 1017,9 hPa 0,0 l/m 0 min 0 min 0 W/m 12,9 km/h (3 Bft) 97,14 %
27.08.2022 23:40 20,3 C 19,4 C 15,6 C 70 % 1017,9 hPa 0,0 l/m 0 min 0 min 0 W/m 12,9 km/h (3 Bft) 97,87 %
27.08.2022 23:42 20,3 C 19,4 C 15,6 C 69 % 1018,0 hPa 0,0 l/m 0 min 0 min 0 W/m 6,4 km/h (2 Bft) 97,83 %
27.08.2022 23:44 20,3 C 19,4 C 15,6 C 70 % 1018,0 hPa 0,0 l/m 0 min 0 min 0 W/m 6,4 km/h (2 Bft) 97,87 %
27.08.2022 23:46 20,3 C 19,4 C 15,6 C 70 % 1017,9 hPa 0,0 l/m 0 min 0 min 0 W/m 6,4 km/h (2 Bft) 97,87 %
27.08.2022 23:48 20,3 C 19,4 C 15,6 C 69 % 1018,0 hPa 0,0 l/m 0 min 0 min 0 W/m 6,4 km/h (2 Bft) 97,87 %
27.08.2022 23:50 20,2 C 19,4 C 15,6 C 69 % 1018,0 hPa 0,0 l/m 0 min 0 min 0 W/m 12,9 km/h (3 Bft) 97,87 %
27.08.2022 23:52 20,2 C 19,4 C 15,6 C 69 % 1018,0 hPa 0,0 l/m 0 min 0 min 0 W/m 9,7 km/h (2 Bft) 97,83 %
27.08.2022 23:54 20,2 C 19,4 C 15,6 C 69 % 1018,0 hPa 0,0 l/m 0 min 0 min 0 W/m 9,7 km/h (2 Bft) 95,83 %
27.08.2022 23:56 20,2 C 19,4 C 15,6 C 69 % 1018,0 hPa 0,0 l/m 0 min 0 min 0 W/m 16,1 km/h (3 Bft) 95,74 %
27.08.2022 23:58 20,2 C 19,4 C 15,6 C 69 % 1018,0 hPa 0,0 l/m 0 min 0 min 0 W/m 12,9 km/h (3 Bft) 93,62 %
_ Min-Zeit 07:34 02:38 07:26 17:48 05:10 - - - - 08:56 11:16
Minimum _ 17,1 C 16,7 C 12,8 C 66 % 1016,1 hPa - - - - 0,0 km/h (0 Bft) 89,36 %
_ Max-Zeit 17:12 15:38 16:28 02:40 23:42 00:00 00:00 00:00 13:24 02:24 00:02
Maximum _ 22,0 C 21,7 C 18,3 C 89 % 1018,0 hPa 0,0 l/m 0 min 0 min 287 W/m 22,5 km/h
N (4 Bft)
100,00 %
Durchschnitt _ 19,5 C 19,0 C 15,4 C 76 % 1017,0 hPa #0,0 l/m #0 min. #0 min. 132 W/m 8,5 km/h (2 Bft) 97,66 %
© 2022 W. Hausmann